| time (UTC) | temp F | wind direction | speed MPH | gust MPH | rain 1hr in | rain 24hr in | rain mn in | humidity % | barometer mb |
| 20260505063056 | 71 | 158 | 4.0 | 5.0 | 0.00 | 0.00 | 0.00 | 85 | 1004.0 |
| 20260505062952 | 71 | 140 | 3.0 | 5.0 | 0.00 | 0.00 | 0.00 | 85 | 1004.0 |
| 20260505062853 | 71 | 148 | 3.0 | 4.0 | 0.00 | 0.00 | 0.00 | 85 | 1004.0 |
| 20260505062749 | 71 | 144 | 3.0 | 4.0 | 0.00 | 0.00 | 0.00 | 85 | 1004.1 |
| 20260505062649 | 71 | 155 | 2.0 | 4.0 | 0.00 | 0.00 | 0.00 | 85 | 1004.1 |
| 20260505062536 | 71 | 157 | 2.0 | 5.0 | 0.00 | 0.00 | 0.00 | 84 | 1004.1 |
| 20260505062433 | 71 | 123 | 2.0 | 5.0 | 0.00 | 0.00 | 0.00 | 84 | 1004.1 |
| 20260505062330 | 71 | 178 | 2.0 | 5.0 | 0.00 | 0.00 | 0.00 | 84 | 1004.2 |
| 20260505062231 | 71 | 141 | 2.0 | 5.0 | 0.00 | 0.00 | 0.00 | 84 | 1004.2 |
| 20260505062132 | 71 | 130 | 2.0 | 5.0 | 0.00 | 0.00 | 0.00 | 84 | 1004.1 |
| 20260505062033 | 71 | 182 | 2.0 | 6.0 | 0.00 | 0.00 | 0.00 | 84 | 1004.1 |
| 20260505061933 | 71 | 165 | 3.0 | 6.0 | 0.00 | 0.00 | 0.00 | 84 | 1004.1 |
| 20260505061831 | 71 | 155 | 3.0 | 6.0 | 0.00 | 0.00 | 0.00 | 84 | 1004.2 |
| 20260505061733 | 71 | 157 | 2.0 | 6.0 | 0.00 | 0.00 | 0.00 | 84 | 1004.2 |
| 20260505061631 | 71 | 141 | 2.0 | 6.0 | 0.00 | 0.00 | 0.00 | 84 | 1004.2 |
| 20260505061533 | 71 | 141 | 2.0 | 7.0 | 0.00 | 0.00 | 0.00 | 84 | 1004.2 |
| 20260505061433 | 71 | 114 | 3.0 | 7.0 | 0.00 | 0.00 | 0.00 | 84 | 1004.3 |
| 20260505061333 | 71 | 151 | 3.0 | 7.0 | 0.00 | 0.00 | 0.00 | 84 | 1004.3 |
| 20260505061232 | 71 | 155 | 3.0 | 7.0 | 0.00 | 0.00 | 0.00 | 84 | 1004.2 |
| 20260505061130 | 71 | 128 | 3.0 | 7.0 | 0.00 | 0.00 | 0.00 | 84 | 1004.2 |
| 20260505061032 | 71 | 127 | 2.0 | 7.0 | 0.00 | 0.00 | 0.00 | 84 | 1004.3 |
| 20260505060930 | 71 | 157 | 2.0 | 7.0 | 0.00 | 0.00 | 0.00 | 84 | 1004.3 |
| 20260505060832 | 71 | 147 | 3.0 | 7.0 | 0.00 | 0.00 | 0.00 | 84 | 1004.5 |
| 20260505060732 | 71 | 151 | 4.0 | 7.0 | 0.00 | 0.00 | 0.00 | 84 | 1004.5 |
| 20260505060632 | 71 | 120 | 3.0 | 7.0 | 0.00 | 0.00 | 0.00 | 84 | 1004.5 |
| 20260505060532 | 71 | 169 | 3.0 | 6.0 | 0.00 | 0.00 | 0.00 | 84 | 1004.6 |
| 20260505060430 | 71 | 130 | 3.0 | 7.0 | 0.00 | 0.00 | 0.00 | 84 | 1004.6 |
| 20260505060331 | 71 | 179 | 3.0 | 7.0 | 0.00 | 0.00 | 0.00 | 84 | 1004.5 |
| 20260505060232 | 71 | 173 | 3.0 | 7.0 | 0.00 | 0.00 | 0.00 | 84 | 1004.5 |
| 20260505060130 | 71 | 154 | 3.0 | 7.0 | 0.00 | 0.00 | 0.00 | 84 | 1004.4 |
| 20260505060033 | 71 | 196 | 2.0 | 7.0 | 0.00 | 0.00 | 0.00 | 84 | 1004.5 |
| 20260505055930 | 71 | 154 | 2.0 | 7.0 | 0.00 | 0.00 | 0.00 | 84 | 1004.5 |
| 20260505055830 | 71 | 130 | 3.0 | 7.0 | 0.00 | 0.00 | 0.00 | 84 | 1004.4 |
| 20260505055730 | 71 | 152 | 4.0 | 7.0 | 0.00 | 0.00 | 0.00 | 84 | 1004.3 |
| 20260505055632 | 71 | 152 | 4.0 | 7.0 | 0.00 | 0.00 | 0.00 | 84 | 1004.3 |
| 20260505055531 | 71 | 111 | 4.0 | 7.0 | 0.00 | 0.00 | 0.00 | 84 | 1004.3 |
| 20260505055432 | 71 | 145 | 4.0 | 6.0 | 0.00 | 0.00 | 0.00 | 84 | 1004.2 |
| 20260505055332 | 71 | 148 | 3.0 | 6.0 | 0.00 | 0.00 | 0.00 | 84 | 1004.3 |
| 20260505055231 | 71 | 168 | 2.0 | 6.0 | 0.00 | 0.00 | 0.00 | 84 | 1004.3 |
| 20260505055132 | 71 | 141 | 2.0 | 6.0 | 0.00 | 0.00 | 0.00 | 84 | 1004.2 |
| 20260505055033 | 71 | 147 | 2.0 | 6.0 | 0.00 | 0.00 | 0.00 | 84 | 1004.3 |
| 20260505054916 | 71 | 141 | 2.0 | 6.0 | 0.00 | 0.00 | 0.00 | 84 | 1004.3 |
| 20260505054815 | 71 | 151 | 2.0 | 6.0 | 0.00 | 0.00 | 0.00 | 84 | 1004.3 |
| 20260505054710 | 71 | 141 | 2.0 | 6.0 | 0.00 | 0.00 | 0.00 | 84 | 1004.3 |
| 20260505054606 | 71 | 152 | 3.0 | 6.0 | 0.00 | 0.00 | 0.00 | 84 | 1004.3 |
| 20260505054504 | 71 | 197 | 3.0 | 6.0 | 0.00 | 0.00 | 0.00 | 83 | 1004.3 |
| 20260505054404 | 71 | 166 | 3.0 | 5.0 | 0.00 | 0.00 | 0.00 | 84 | 1004.3 |
| 20260505054302 | 71 | 157 | 3.0 | 5.0 | 0.00 | 0.00 | 0.00 | 83 | 1004.3 |
| 20260505054203 | 71 | 173 | 3.0 | 5.0 | 0.00 | 0.00 | 0.00 | 84 | 1004.3 |
| 20260505054103 | 71 | 144 | 2.0 | 5.0 | 0.00 | 0.00 | 0.00 | 84 | 1004.2 |
| 20260505054003 | 71 | 135 | 2.0 | 5.0 | 0.00 | 0.00 | 0.00 | 83 | 1004.2 |
| 20260505053902 | 71 | 149 | 2.0 | 5.0 | 0.00 | 0.00 | 0.00 | 83 | 1004.2 |
| 20260505053801 | 71 | 148 | 3.0 | 5.0 | 0.00 | 0.00 | 0.00 | 83 | 1004.3 |
| 20260505053702 | 71 | 165 | 2.0 | 5.0 | 0.00 | 0.00 | 0.00 | 83 | 1004.3 |
| 20260505053603 | 71 | 123 | 2.0 | 5.0 | 0.00 | 0.00 | 0.00 | 83 | 1004.3 |
| 20260505053502 | 71 | 166 | 3.0 | 5.0 | 0.00 | 0.00 | 0.00 | 83 | 1004.3 |
| 20260505053404 | 71 | 168 | 2.0 | 5.0 | 0.00 | 0.00 | 0.00 | 83 | 1004.3 |
| 20260505053302 | 71 | 172 | 2.0 | 5.0 | 0.00 | 0.00 | 0.00 | 83 | 1004.3 |
| 20260505053203 | 71 | 175 | 3.0 | 5.0 | 0.00 | 0.00 | 0.00 | 83 | 1004.3 |
| 20260505053102 | 71 | 147 | 2.0 | 5.0 | 0.00 | 0.00 | 0.00 | 83 | 1004.4 |
| 20260505053004 | 71 | 175 | 3.0 | 6.0 | 0.00 | 0.00 | 0.00 | 83 | 1004.4 |
| 20260505052902 | 71 | 161 | 3.0 | 6.0 | 0.00 | 0.00 | 0.00 | 83 | 1004.4 |
| 20260505052758 | 71 | 134 | 3.0 | 6.0 | 0.00 | 0.00 | 0.00 | 83 | 1004.5 |
| 20260505052648 | 71 | 164 | 3.0 | 6.0 | 0.00 | 0.00 | 0.00 | 83 | 1004.5 |
| 20260505052547 | 71 | 159 | 3.0 | 6.0 | 0.00 | 0.00 | 0.00 | 83 | 1004.5 |
| 20260505052445 | 71 | 204 | 3.0 | 7.0 | 0.00 | 0.00 | 0.00 | 83 | 1004.5 |
| 20260505052336 | 71 | 131 | 2.0 | 9.0 | 0.00 | 0.00 | 0.00 | 83 | 1004.6 |
| 20260505052233 | 71 | 138 | 2.0 | 9.0 | 0.00 | 0.00 | 0.00 | 83 | 1004.6 |
| 20260505052133 | 71 | 180 | 3.0 | 9.0 | 0.00 | 0.00 | 0.00 | 83 | 1004.7 |
| 20260505052033 | 71 | 151 | 4.0 | 9.0 | 0.00 | 0.00 | 0.00 | 83 | 1004.6 |
| 20260505051931 | 71 | 148 | 2.0 | 9.0 | 0.00 | 0.00 | 0.00 | 83 | 1004.6 |
| 20260505051828 | 71 | 159 | 2.0 | 9.0 | 0.00 | 0.00 | 0.00 | 82 | 1004.6 |
| 20260505051724 | 71 | 168 | 2.0 | 9.0 | 0.00 | 0.00 | 0.00 | 82 | 1004.7 |
| 20260505051617 | 71 | 169 | 4.0 | 9.0 | 0.00 | 0.00 | 0.00 | 82 | 1004.7 |
| 20260505051511 | 71 | 199 | 4.0 | 9.0 | 0.00 | 0.00 | 0.00 | 82 | 1004.7 |
| 20260505051403 | 71 | 159 | 2.0 | 7.0 | 0.00 | 0.00 | 0.00 | 82 | 1004.7 |
| 20260505051302 | 71 | 186 | 2.0 | 7.0 | 0.00 | 0.00 | 0.00 | 82 | 1004.7 |
| 20260505051202 | 71 | 164 | 2.0 | 7.0 | 0.00 | 0.00 | 0.00 | 83 | 1004.7 |
| 20260505051102 | 71 | 168 | 3.0 | 7.0 | 0.00 | 0.00 | 0.00 | 83 | 1004.7 |
| 20260505051004 | 71 | 144 | 3.0 | 7.0 | 0.00 | 0.00 | 0.00 | 82 | 1004.6 |
| 20260505050903 | 71 | 157 | 2.0 | 7.0 | 0.00 | 0.00 | 0.00 | 82 | 1004.7 |
| 20260505050803 | 71 | 152 | 2.0 | 11.0 | 0.00 | 0.00 | 0.00 | 82 | 1004.7 |
| 20260505050702 | 71 | 147 | 3.0 | 11.0 | 0.00 | 0.00 | 0.00 | 82 | 1004.7 |
| 20260505050601 | 71 | 118 | 3.0 | 11.0 | 0.00 | 0.00 | 0.00 | 82 | 1004.7 |
| 20260505050502 | 71 | 135 | 2.0 | 11.0 | 0.00 | 0.00 | 0.00 | 82 | 1004.7 |
| 20260505050402 | 71 | 162 | 2.0 | 11.0 | 0.00 | 0.00 | 0.00 | 82 | 1004.8 |
| 20260505050303 | 71 | 164 | 3.0 | 11.0 | 0.00 | 0.00 | 0.00 | 82 | 1004.9 |
| 20260505050202 | 71 | 152 | 3.0 | 11.0 | 0.00 | 0.00 | 0.00 | 82 | 1004.8 |
| 20260505041701 | 72 | 157 | 3.0 | 6.0 | 0.00 | 0.00 | 0.00 | 81 | 1004.8 |
| 20260505041602 | 72 | 172 | 3.0 | 6.0 | 0.00 | 0.00 | 0.00 | 81 | 1004.9 |
| 20260505041500 | 72 | 172 | 3.0 | 6.0 | 0.00 | 0.00 | 0.00 | 81 | 1004.9 |
| 20260505041400 | 72 | 161 | 2.0 | 7.0 | 0.00 | 0.00 | 0.00 | 81 | 1004.9 |
| 20260505041300 | 72 | 142 | 2.0 | 7.0 | 0.00 | 0.00 | 0.00 | 81 | 1004.9 |
| 20260505041200 | 72 | 154 | 2.0 | 7.0 | 0.00 | 0.00 | 0.00 | 81 | 1004.9 |
| 20260505041101 | 72 | 158 | 4.0 | 7.0 | 0.00 | 0.00 | 0.00 | 80 | 1004.8 |
| 20260505041002 | 72 | 140 | 4.0 | 7.0 | 0.00 | 0.00 | 0.00 | 81 | 1004.8 |
| 20260505040900 | 72 | 142 | 4.0 | 7.0 | 0.00 | 0.00 | 0.00 | 81 | 1004.7 |
| 20260505040800 | 72 | 124 | 4.0 | 10.0 | 0.00 | 0.00 | 0.00 | 81 | 1004.7 |
| 20260505040700 | 72 | 144 | 2.0 | 10.0 | 0.00 | 0.00 | 0.00 | 81 | 1004.7 |
| 20260505040601 | 72 | 141 | 4.0 | 10.0 | 0.00 | 0.00 | 0.00 | 80 | 1004.7 |
| 20260505040501 | 72 | 125 | 5.0 | 10.0 | 0.00 | 0.00 | 0.00 | 80 | 1004.7 |
| 20260505040400 | 72 | 161 | 4.0 | 10.0 | 0.00 | 0.00 | 0.00 | 80 | 1004.7 |
| 20260505040302 | 72 | 166 | 3.0 | 10.0 | 0.00 | 0.00 | 0.00 | 80 | 1004.7 |
| 20260505040201 | 72 | 192 | 3.0 | 10.0 | 0.00 | 0.00 | 0.00 | 80 | 1004.9 |
| 20260505040100 | 72 | 137 | 3.0 | 10.0 | 0.00 | 0.00 | 0.00 | 80 | 1004.8 |
| 20260505040001 | 72 | 138 | 4.0 | 10.0 | 0.00 | 0.00 | 0.00 | 80 | 1004.8 |
| 20260505035900 | 72 | 158 | 6.0 | 10.0 | 0.00 | 0.00 | 0.00 | 80 | 1004.8 |
| 20260505035801 | 72 | 202 | 4.0 | 10.0 | 0.00 | 0.00 | 0.00 | 80 | 1004.8 |
| 20260505035701 | 72 | 111 | 4.0 | 10.0 | 0.00 | 0.00 | 0.00 | 80 | 1004.9 |
| 20260505035601 | 72 | 164 | 5.0 | 10.0 | 0.00 | 0.00 | 0.00 | 80 | 1004.8 |
| 20260505035501 | 72 | 186 | 4.0 | 10.0 | 0.00 | 0.00 | 0.00 | 80 | 1005.0 |
| 20260505035359 | 72 | 183 | 4.0 | 10.0 | 0.00 | 0.00 | 0.00 | 80 | 1004.9 |
| 20260505035301 | 72 | 149 | 3.0 | 10.0 | 0.00 | 0.00 | 0.00 | 80 | 1004.9 |
| 20260505035159 | 72 | 169 | 4.0 | 10.0 | 0.00 | 0.00 | 0.00 | 80 | 1005.0 |
| 20260505035101 | 72 | 148 | 4.0 | 10.0 | 0.00 | 0.00 | 0.00 | 80 | 1004.9 |
| 20260505034959 | 72 | 128 | 6.0 | 10.0 | 0.00 | 0.00 | 0.00 | 80 | 1004.9 |
| 20260505034901 | 72 | 123 | 5.0 | 10.0 | 0.00 | 0.00 | 0.00 | 80 | 1004.9 |
| 20260505034801 | 72 | 155 | 4.0 | 7.0 | 0.00 | 0.00 | 0.00 | 80 | 1004.9 |
| 20260505034659 | 72 | 166 | 4.0 | 7.0 | 0.00 | 0.00 | 0.00 | 80 | 1004.9 |
| 20260505034600 | 72 | 204 | 4.0 | 7.0 | 0.00 | 0.00 | 0.00 | 80 | 1004.8 |
| 20260505034501 | 72 | 128 | 4.0 | 7.0 | 0.00 | 0.00 | 0.00 | 80 | 1004.9 |
| 20260505034400 | 72 | 141 | 3.0 | 7.0 | 0.00 | 0.00 | 0.00 | 80 | 1004.9 |
| 20260505034259 | 72 | 148 | 3.0 | 6.0 | 0.00 | 0.00 | 0.00 | 80 | 1004.9 |
| 20260505034201 | 72 | 154 | 4.0 | 6.0 | 0.00 | 0.00 | 0.00 | 80 | 1005.0 |
| 20260505034059 | 72 | 144 | 4.0 | 6.0 | 0.00 | 0.00 | 0.00 | 80 | 1004.9 |
| 20260505033959 | 72 | 147 | 4.0 | 6.0 | 0.00 | 0.00 | 0.00 | 80 | 1005.0 |
| 20260505033900 | 72 | 148 | 4.0 | 6.0 | 0.00 | 0.00 | 0.00 | 80 | 1005.1 |
| 20260505033759 | 72 | 124 | 4.0 | 6.0 | 0.00 | 0.00 | 0.00 | 80 | 1005.1 |
| 20260505033700 | 72 | 145 | 4.0 | 6.0 | 0.00 | 0.00 | 0.00 | 80 | 1005.2 |
| 20260505033601 | 72 | 164 | 4.0 | 6.0 | 0.00 | 0.00 | 0.00 | 80 | 1005.2 |
| 20260505033500 | 72 | 166 | 4.0 | 6.0 | 0.00 | 0.00 | 0.00 | 80 | 1005.2 |
| 20260505033402 | 72 | 152 | 4.0 | 6.0 | 0.00 | 0.00 | 0.00 | 80 | 1005.2 |
| 20260505033259 | 72 | 196 | 4.0 | 6.0 | 0.00 | 0.00 | 0.00 | 79 | 1005.2 |
| 20260505033200 | 72 | 144 | 3.0 | 6.0 | 0.00 | 0.00 | 0.00 | 79 | 1005.2 |
| 20260505033100 | 72 | 142 | 3.0 | 7.0 | 0.00 | 0.00 | 0.00 | 79 | 1005.0 |
| 20260505033001 | 72 | 147 | 3.0 | 7.0 | 0.00 | 0.00 | 0.00 | 79 | 1005.0 |
| 20260505032900 | 73 | 137 | 3.0 | 7.0 | 0.00 | 0.00 | 0.00 | 79 | 1005.0 |
| 20260505032801 | 73 | 178 | 3.0 | 7.0 | 0.00 | 0.00 | 0.00 | 79 | 1005.0 |
| 20260505032700 | 73 | 179 | 3.0 | 7.0 | 0.00 | 0.00 | 0.00 | 79 | 1005.0 |
| 20260505032601 | 73 | 162 | 4.0 | 7.0 | 0.00 | 0.00 | 0.00 | 79 | 1005.0 |
| 20260505032500 | 73 | 152 | 4.0 | 10.0 | 0.00 | 0.00 | 0.00 | 79 | 1005.0 |
| 20260505032400 | 73 | 188 | 4.0 | 10.0 | 0.00 | 0.00 | 0.00 | 79 | 1005.0 |
| 20260505032300 | 73 | 176 | 4.0 | 10.0 | 0.00 | 0.00 | 0.00 | 79 | 1005.0 |
| 20260505032200 | 73 | 151 | 5.0 | 10.0 | 0.00 | 0.00 | 0.00 | 79 | 1005.0 |
| 20260505032100 | 73 | 138 | 4.0 | 10.0 | 0.00 | 0.00 | 0.00 | 79 | 1005.0 |
| 20260505031959 | 73 | 148 | 5.0 | 12.0 | 0.00 | 0.00 | 0.00 | 79 | 1005.1 |
| 20260505031900 | 73 | 148 | 4.0 | 12.0 | 0.00 | 0.00 | 0.00 | 79 | 1005.0 |
| 20260505031759 | 73 | 144 | 4.0 | 12.0 | 0.00 | 0.00 | 0.00 | 79 | 1005.1 |
| 20260505031701 | 73 | 169 | 4.0 | 12.0 | 0.00 | 0.00 | 0.00 | 79 | 1005.1 |
| 20260505031558 | 73 | 159 | 4.0 | 12.0 | 0.00 | 0.00 | 0.00 | 79 | 1005.1 |
| 20260505031500 | 73 | 175 | 3.0 | 12.0 | 0.00 | 0.00 | 0.00 | 79 | 1005.1 |
| 20260505031359 | 73 | 117 | 3.0 | 12.0 | 0.00 | 0.00 | 0.00 | 79 | 1005.1 |
| 20260505031301 | 73 | 137 | 3.0 | 12.0 | 0.00 | 0.00 | 0.00 | 79 | 1005.1 |
| 20260505031200 | 73 | 173 | 6.0 | 12.0 | 0.00 | 0.00 | 0.00 | 79 | 1005.0 |
| 20260505031059 | 73 | 154 | 6.0 | 12.0 | 0.00 | 0.00 | 0.00 | 79 | 1005.1 |
| 20260505030958 | 73 | 193 | 5.0 | 12.0 | 0.00 | 0.00 | 0.00 | 79 | 1004.9 |
| 20260505030859 | 73 | 171 | 5.0 | 12.0 | 0.00 | 0.00 | 0.00 | 79 | 1004.9 |
| 20260505030758 | 73 | 140 | 3.0 | 12.0 | 0.00 | 0.00 | 0.00 | 79 | 1004.9 |
| 20260505030700 | 73 | 141 | 5.0 | 12.0 | 0.00 | 0.00 | 0.00 | 79 | 1004.9 |
| 20260505030600 | 73 | 154 | 7.0 | 12.0 | 0.00 | 0.00 | 0.00 | 79 | 1004.9 |
| 20260505030458 | 73 | 169 | 5.0 | 10.0 | 0.00 | 0.00 | 0.00 | 79 | 1005.0 |
| 20260505030358 | 73 | 137 | 4.0 | 9.0 | 0.00 | 0.00 | 0.00 | 79 | 1005.0 |
| 20260505030258 | 73 | 149 | 4.0 | 9.0 | 0.00 | 0.00 | 0.00 | 78 | 1005.0 |
| 20260505030158 | 73 | 155 | 4.0 | 9.0 | 0.00 | 0.00 | 0.00 | 78 | 1004.9 |
| 20260505030059 | 73 | 164 | 5.0 | 9.0 | 0.00 | 0.00 | 0.00 | 78 | 1004.9 |
| 20260505030000 | 73 | 145 | 4.0 | 9.0 | 0.00 | 0.00 | 0.00 | 78 | 1005.0 |
| 20260505025859 | 73 | 148 | 3.0 | 9.0 | 0.00 | 0.00 | 0.00 | 78 | 1005.0 |
| 20260505025759 | 73 | 161 | 4.0 | 9.0 | 0.00 | 0.00 | 0.00 | 78 | 1004.9 |
| 20260505025658 | 73 | 171 | 5.0 | 9.0 | 0.00 | 0.00 | 0.00 | 78 | 1005.0 |
| 20260505025559 | 73 | 161 | 5.0 | 9.0 | 0.00 | 0.00 | 0.00 | 78 | 1004.9 |
| 20260505025458 | 73 | 176 | 5.0 | 7.0 | 0.00 | 0.00 | 0.00 | 78 | 1005.0 |
| 20260505025358 | 73 | 155 | 3.0 | 7.0 | 0.00 | 0.00 | 0.00 | 78 | 1005.0 |
| 20260505025259 | 73 | 172 | 3.0 | 9.0 | 0.00 | 0.00 | 0.00 | 78 | 1005.0 |
| 20260505025158 | 73 | 148 | 2.0 | 9.0 | 0.00 | 0.00 | 0.00 | 78 | 1005.0 |
| 20260505025059 | 73 | 130 | 3.0 | 9.0 | 0.00 | 0.00 | 0.00 | 78 | 1005.0 |
| 20260505024958 | 73 | 159 | 4.0 | 9.0 | 0.00 | 0.00 | 0.00 | 78 | 1004.9 |
| 20260505024859 | 73 | 145 | 5.0 | 9.0 | 0.00 | 0.00 | 0.00 | 78 | 1004.8 |
| 20260505024758 | 73 | 166 | 4.0 | 9.0 | 0.00 | 0.00 | 0.00 | 78 | 1004.9 |
| 20260505024659 | 73 | 128 | 4.0 | 9.0 | 0.00 | 0.00 | 0.00 | 78 | 1004.9 |
| 20260505024558 | 74 | 124 | 4.0 | 9.0 | 0.00 | 0.00 | 0.00 | 78 | 1004.8 |
| 20260505024501 | 74 | 137 | 4.0 | 9.0 | 0.00 | 0.00 | 0.00 | 78 | 1004.9 |
| 20260505024358 | 74 | 171 | 4.0 | 9.0 | 0.00 | 0.00 | 0.00 | 78 | 1004.8 |
| 20260505024259 | 74 | 124 | 3.0 | 9.0 | 0.00 | 0.00 | 0.00 | 77 | 1004.9 |
| 20260505024159 | 74 | 145 | 5.0 | 9.0 | 0.00 | 0.00 | 0.00 | 77 | 1004.8 |
| 20260505024058 | 74 | 168 | 6.0 | 9.0 | 0.00 | 0.00 | 0.00 | 77 | 1004.9 |
| 20260505024001 | 74 | 161 | 6.0 | 9.0 | 0.00 | 0.00 | 0.00 | 77 | 1004.9 |
| 20260505023858 | 74 | 154 | 5.0 | 9.0 | 0.00 | 0.00 | 0.00 | 77 | 1005.0 |
| 20260505023759 | 74 | 144 | 4.0 | 9.0 | 0.00 | 0.00 | 0.00 | 77 | 1005.0 |
| 20260505023658 | 74 | 159 | 5.0 | 9.0 | 0.00 | 0.00 | 0.00 | 77 | 1005.0 |
| 20260505023559 | 74 | 114 | 6.0 | 9.0 | 0.00 | 0.00 | 0.00 | 77 | 1005.1 |
| 20260505023459 | 74 | 133 | 4.0 | 9.0 | 0.00 | 0.00 | 0.00 | 77 | 1005.1 |
| 20260505023357 | 74 | 196 | 4.0 | 9.0 | 0.00 | 0.00 | 0.00 | 77 | 1005.1 |
| 20260505023300 | 74 | 137 | 4.0 | 9.0 | 0.00 | 0.00 | 0.00 | 77 | 1005.1 |
| 20260505023158 | 74 | 161 | 3.0 | 9.0 | 0.00 | 0.00 | 0.00 | 77 | 1005.1 |
| 20260505023058 | 74 | 159 | 3.0 | 9.0 | 0.00 | 0.00 | 0.00 | 77 | 1005.0 |
| 20260505022957 | 74 | 161 | 4.0 | 9.0 | 0.00 | 0.00 | 0.00 | 77 | 1005.1 |
| 20260505022857 | 74 | 141 | 4.0 | 9.0 | 0.00 | 0.00 | 0.00 | 77 | 1005.1 |
| 20260505022758 | 74 | 154 | 4.0 | 9.0 | 0.00 | 0.00 | 0.00 | 77 | 1005.0 |
| 20260505022657 | 74 | 197 | 5.0 | 10.0 | 0.00 | 0.00 | 0.00 | 77 | 1005.0 |
| 20260505022558 | 74 | 165 | 5.0 | 10.0 | 0.00 | 0.00 | 0.00 | 77 | 1005.0 |
| 20260505022458 | 74 | 149 | 5.0 | 10.0 | 0.00 | 0.00 | 0.00 | 77 | 1005.0 |
| 20260505022358 | 74 | 140 | 6.0 | 10.0 | 0.00 | 0.00 | 0.00 | 77 | 1005.0 |
| 20260505022258 | 74 | 175 | 6.0 | 10.0 | 0.00 | 0.00 | 0.00 | 77 | 1005.0 |
| 20260505022157 | 74 | 169 | 4.0 | 10.0 | 0.00 | 0.00 | 0.00 | 77 | 1005.0 |
| 20260505022059 | 74 | 125 | 3.0 | 10.0 | 0.00 | 0.00 | 0.00 | 77 | 1004.9 |
| 20260505021958 | 74 | 165 | 4.0 | 10.0 | 0.00 | 0.00 | 0.00 | 77 | 1004.9 |
| 20260505021858 | 74 | 118 | 5.0 | 10.0 | 0.00 | 0.00 | 0.00 | 77 | 1004.9 |
| 20260505021757 | 74 | 117 | 5.0 | 10.0 | 0.00 | 0.00 | 0.00 | 77 | 1004.9 |
| 20260505021657 | 74 | 223 | 5.0 | 10.0 | 0.00 | 0.00 | 0.00 | 77 | 1004.8 |
| 20260505021558 | 74 | 125 | 4.0 | 10.0 | 0.00 | 0.00 | 0.00 | 77 | 1004.8 |
| 20260505021459 | 74 | 193 | 3.0 | 10.0 | 0.00 | 0.00 | 0.00 | 77 | 1004.7 |
| 20260505021357 | 74 | 190 | 3.0 | 10.0 | 0.00 | 0.00 | 0.00 | 77 | 1004.8 |
| 20260505021257 | 74 | 157 | 3.0 | 10.0 | 0.00 | 0.00 | 0.00 | 77 | 1004.8 |
| 20260505021159 | 74 | 128 | 4.0 | 10.0 | 0.00 | 0.00 | 0.00 | 77 | 1004.7 |
| 20260505021058 | 74 | 173 | 4.0 | 10.0 | 0.00 | 0.00 | 0.00 | 77 | 1004.7 |
| 20260505020959 | 74 | 182 | 4.0 | 9.0 | 0.00 | 0.00 | 0.00 | 77 | 1004.6 |
| 20260505020857 | 74 | 152 | 4.0 | 9.0 | 0.00 | 0.00 | 0.00 | 77 | 1004.7 |
| 20260505020758 | 74 | 128 | 4.0 | 9.0 | 0.00 | 0.00 | 0.00 | 77 | 1004.7 |
| 20260505020658 | 74 | 131 | 4.0 | 9.0 | 0.00 | 0.00 | 0.00 | 76 | 1004.8 |
| 20260505020557 | 74 | 147 | 4.0 | 9.0 | 0.00 | 0.00 | 0.00 | 76 | 1004.7 |
| 20260505020458 | 74 | 144 | 2.0 | 9.0 | 0.00 | 0.00 | 0.00 | 76 | 1004.7 |
| 20260505020359 | 74 | 151 | 3.0 | 9.0 | 0.00 | 0.00 | 0.00 | 76 | 1004.6 |
| 20260505020259 | 74 | 107 | 3.0 | 9.0 | 0.00 | 0.00 | 0.00 | 76 | 1004.7 |
| 20260505020157 | 74 | 125 | 4.0 | 9.0 | 0.00 | 0.00 | 0.00 | 76 | 1004.7 |
| 20260505020057 | 74 | 138 | 5.0 | 10.0 | 0.00 | 0.00 | 0.00 | 76 | 1004.7 |
| 20260505015957 | 74 | 102 | 4.0 | 10.0 | 0.00 | 0.00 | 0.00 | 76 | 1004.6 |
| 20260505015858 | 74 | 152 | 4.0 | 10.0 | 0.00 | 0.00 | 0.00 | 76 | 1004.6 |
| 20260505015759 | 74 | 164 | 5.0 | 10.0 | 0.00 | 0.00 | 0.00 | 76 | 1004.6 |
| 20260505015657 | 74 | 142 | 5.0 | 10.0 | 0.00 | 0.00 | 0.00 | 76 | 1004.6 |
| 20260505015558 | 74 | 131 | 4.0 | 10.0 | 0.00 | 0.00 | 0.00 | 76 | 1004.6 |
| 20260505015457 | 74 | 149 | 5.0 | 10.0 | 0.00 | 0.00 | 0.00 | 76 | 1004.6 |
| 20260505015357 | 74 | 175 | 5.0 | 10.0 | 0.00 | 0.00 | 0.00 | 76 | 1004.5 |
| 20260505015259 | 74 | 140 | 5.0 | 10.0 | 0.00 | 0.00 | 0.00 | 76 | 1004.6 |
| 20260505015157 | 75 | 144 | 4.0 | 10.0 | 0.00 | 0.00 | 0.00 | 76 | 1004.6 |
| 20260505015057 | 75 | 135 | 4.0 | 7.0 | 0.00 | 0.00 | 0.00 | 76 | 1004.7 |
| 20260505014958 | 75 | 149 | 3.0 | 9.0 | 0.00 | 0.00 | 0.00 | 76 | 1004.7 |
| 20260505014857 | 75 | 152 | 3.0 | 9.0 | 0.00 | 0.00 | 0.00 | 76 | 1004.7 |
| 20260505014758 | 75 | 117 | 4.0 | 9.0 | 0.00 | 0.00 | 0.00 | 76 | 1004.7 |
| 20260505014656 | 75 | 162 | 4.0 | 9.0 | 0.00 | 0.00 | 0.00 | 76 | 1004.7 |
| 20260505014558 | 75 | 145 | 3.0 | 9.0 | 0.00 | 0.00 | 0.00 | 76 | 1004.7 |
| 20260505014456 | 75 | 207 | 3.0 | 9.0 | 0.00 | 0.00 | 0.00 | 76 | 1004.6 |
| 20260505014358 | 75 | 151 | 3.0 | 10.0 | 0.00 | 0.00 | 0.00 | 75 | 1004.6 |
| 20260505014257 | 75 | 182 | 3.0 | 10.0 | 0.00 | 0.00 | 0.00 | 75 | 1004.7 |
| 20260505014156 | 75 | 175 | 4.0 | 10.0 | 0.00 | 0.00 | 0.00 | 75 | 1004.7 |
| 20260505014056 | 75 | 145 | 5.0 | 10.0 | 0.00 | 0.00 | 0.00 | 75 | 1004.7 |
| 20260505013957 | 75 | 147 | 4.0 | 10.0 | 0.00 | 0.00 | 0.00 | 75 | 1004.6 |
| 20260505013857 | 75 | 161 | 4.0 | 10.0 | 0.00 | 0.00 | 0.00 | 75 | 1004.7 |
| 20260505013756 | 75 | 171 | 4.0 | 10.0 | 0.00 | 0.00 | 0.00 | 75 | 1004.7 |
| 20260505013658 | 75 | 152 | 4.0 | 10.0 | 0.00 | 0.00 | 0.00 | 75 | 1004.7 |
| 20260505013558 | 75 | 171 | 4.0 | 10.0 | 0.00 | 0.00 | 0.00 | 75 | 1004.6 |
| 20260505013457 | 75 | 147 | 5.0 | 10.0 | 0.00 | 0.00 | 0.00 | 75 | 1004.5 |
| 20260505013358 | 75 | 171 | 6.0 | 10.0 | 0.00 | 0.00 | 0.00 | 75 | 1004.5 |
| 20260505013252 | 75 | 193 | 6.0 | 10.0 | 0.00 | 0.00 | 0.00 | 75 | 1004.6 |
| 20260505013150 | 75 | 149 | 6.0 | 10.0 | 0.00 | 0.00 | 0.00 | 75 | 1004.5 |
| 20260505013050 | 75 | 103 | 5.0 | 10.0 | 0.00 | 0.00 | 0.00 | 75 | 1004.4 |
| 20260505012932 | 75 | 116 | 5.0 | 10.0 | 0.00 | 0.00 | 0.00 | 75 | 1004.4 |
| 20260505012831 | 75 | 127 | 5.0 | 10.0 | 0.00 | 0.00 | 0.00 | 75 | 1004.3 |
| 20260505012734 | 75 | 161 | 4.0 | 12.0 | 0.00 | 0.00 | 0.00 | 74 | 1004.4 |
| 20260505012631 | 75 | 155 | 6.0 | 12.0 | 0.00 | 0.00 | 0.00 | 74 | 1004.3 |
| 20260505012532 | 75 | 171 | 5.0 | 12.0 | 0.00 | 0.00 | 0.00 | 74 | 1004.3 |
| 20260505012431 | 75 | 151 | 4.0 | 12.0 | 0.00 | 0.00 | 0.00 | 74 | 1004.3 |
| 20260505012332 | 75 | 148 | 4.0 | 12.0 | 0.00 | 0.00 | 0.00 | 74 | 1004.2 |
| 20260505012231 | 75 | 148 | 5.0 | 12.0 | 0.00 | 0.00 | 0.00 | 74 | 1004.3 |
| 20260505012133 | 75 | 144 | 4.0 | 12.0 | 0.00 | 0.00 | 0.00 | 74 | 1004.3 |
| 20260505012032 | 75 | 161 | 4.0 | 12.0 | 0.00 | 0.00 | 0.00 | 74 | 1004.3 |
| 20260505011933 | 75 | 137 | 5.0 | 12.0 | 0.00 | 0.00 | 0.00 | 74 | 1004.3 |
| 20260505011831 | 75 | 145 | 5.0 | 12.0 | 0.00 | 0.00 | 0.00 | 74 | 1004.3 |
| 20260505011730 | 75 | 178 | 5.0 | 11.0 | 0.00 | 0.00 | 0.00 | 74 | 1004.3 |
| 20260505011629 | 75 | 157 | 6.0 | 11.0 | 0.00 | 0.00 | 0.00 | 74 | 1004.3 |
| 20260505011525 | 75 | 154 | 4.0 | 11.0 | 0.00 | 0.00 | 0.00 | 74 | 1004.3 |
| 20260505011422 | 75 | 133 | 5.0 | 11.0 | 0.00 | 0.00 | 0.00 | 74 | 1004.3 |
| 20260505011320 | 76 | 147 | 5.0 | 11.0 | 0.00 | 0.00 | 0.00 | 74 | 1004.3 |
| 20260505011219 | 76 | 278 | 5.0 | 11.0 | 0.00 | 0.00 | 0.00 | 74 | 1004.2 |
| 20260505011116 | 76 | 154 | 6.0 | 11.0 | 0.00 | 0.00 | 0.00 | 73 | 1004.2 |
| 20260505011015 | 76 | 140 | 5.0 | 10.0 | 0.00 | 0.00 | 0.00 | 73 | 1004.2 |
| 20260505010912 | 76 | 144 | 5.0 | 15.0 | 0.00 | 0.00 | 0.00 | 73 | 1004.2 |
| 20260505010812 | 76 | 164 | 5.0 | 15.0 | 0.00 | 0.00 | 0.00 | 73 | 1004.2 |
| 20260505010708 | 76 | 199 | 4.0 | 15.0 | 0.00 | 0.00 | 0.00 | 73 | 1004.2 |
| 20260505010603 | 76 | 203 | 4.0 | 15.0 | 0.00 | 0.00 | 0.00 | 73 | 1004.2 |
| 20260505010505 | 76 | 151 | 4.0 | 15.0 | 0.00 | 0.00 | 0.00 | 73 | 1004.3 |
| 20260505010403 | 76 | 169 | 5.0 | 15.0 | 0.00 | 0.00 | 0.00 | 73 | 1004.3 |
| 20260505010303 | 76 | 199 | 6.0 | 15.0 | 0.00 | 0.00 | 0.00 | 73 | 1004.4 |
| 20260505010204 | 76 | 169 | 6.0 | 15.0 | 0.00 | 0.00 | 0.00 | 73 | 1004.3 |
| 20260505010004 | 76 | 116 | 6.0 | 15.0 | 0.00 | 0.00 | 0.00 | 73 | 1004.3 |
| 20260505005904 | 76 | 145 | 7.0 | 15.0 | 0.00 | 0.00 | 0.00 | 73 | 1004.3 |
| 20260505005803 | 76 | 148 | 8.0 | 15.0 | 0.00 | 0.00 | 0.00 | 73 | 1004.4 |
| 20260505005703 | 76 | 159 | 5.0 | 9.0 | 0.00 | 0.00 | 0.00 | 74 | 1004.3 |
| 20260505005603 | 76 | 135 | 5.0 | 9.0 | 0.00 | 0.00 | 0.00 | 74 | 1004.3 |
| 20260505005504 | 76 | 158 | 5.0 | 9.0 | 0.00 | 0.00 | 0.00 | 74 | 1004.4 |
| 20260505005403 | 76 | 113 | 3.0 | 10.0 | 0.00 | 0.00 | 0.00 | 74 | 1004.4 |
| 20260505005304 | 76 | 166 | 3.0 | 10.0 | 0.00 | 0.00 | 0.00 | 74 | 1004.3 |
| 20260505005203 | 76 | 138 | 3.0 | 10.0 | 0.00 | 0.00 | 0.00 | 74 | 1004.3 |
| 20260505005102 | 76 | 141 | 3.0 | 10.0 | 0.00 | 0.00 | 0.00 | 74 | 1004.2 |
| 20260505005005 | 76 | 166 | 3.0 | 10.0 | 0.00 | 0.00 | 0.00 | 74 | 1004.3 |
| 20260505004904 | 76 | 162 | 3.0 | 10.0 | 0.00 | 0.00 | 0.00 | 73 | 1004.3 |
| 20260505004803 | 76 | 159 | 3.0 | 10.0 | 0.00 | 0.00 | 0.00 | 73 | 1004.2 |
| 20260505004703 | 76 | 171 | 4.0 | 10.0 | 0.00 | 0.00 | 0.00 | 73 | 1004.2 |
| 20260505004602 | 76 | 169 | 5.0 | 10.0 | 0.00 | 0.00 | 0.00 | 73 | 1004.1 |
| 20260505004505 | 76 | 169 | 5.0 | 10.0 | 0.00 | 0.00 | 0.00 | 73 | 1004.0 |
| 20260505004404 | 76 | 162 | 4.0 | 9.0 | 0.00 | 0.00 | 0.00 | 73 | 1004.1 |
| 20260505004304 | 76 | 158 | 4.0 | 9.0 | 0.00 | 0.00 | 0.00 | 73 | 1004.2 |
| 20260505004203 | 76 | 123 | 5.0 | 10.0 | 0.00 | 0.00 | 0.00 | 73 | 1004.2 |
| 20260505004103 | 76 | 142 | 5.0 | 11.0 | 0.00 | 0.00 | 0.00 | 73 | 1004.2 |
| 20260505004006 | 76 | 116 | 5.0 | 14.0 | 0.00 | 0.00 | 0.00 | 73 | 1004.2 |
| 20260505003902 | 76 | 144 | 5.0 | 14.0 | 0.00 | 0.00 | 0.00 | 73 | 1004.2 |
| 20260505003804 | 76 | 179 | 4.0 | 14.0 | 0.00 | 0.00 | 0.00 | 73 | 1004.3 |
| 20260505003703 | 76 | 152 | 5.0 | 14.0 | 0.00 | 0.00 | 0.00 | 73 | 1004.2 |
| 20260505003604 | 76 | 100 | 6.0 | 14.0 | 0.00 | 0.00 | 0.00 | 73 | 1004.2 |
| 20260505003504 | 76 | 158 | 5.0 | 14.0 | 0.00 | 0.00 | 0.00 | 73 | 1004.3 |
| 20260505003404 | 76 | 104 | 5.0 | 14.0 | 0.00 | 0.00 | 0.00 | 73 | 1004.3 |
| 20260505003303 | 77 | 144 | 7.0 | 14.0 | 0.00 | 0.00 | 0.00 | 73 | 1004.2 |
| 20260505003202 | 77 | 172 | 8.0 | 14.0 | 0.00 | 0.00 | 0.00 | 73 | 1004.2 |
| 20260505003103 | 77 | 117 | 7.0 | 14.0 | 0.00 | 0.00 | 0.00 | 73 | 1004.2 |
| 20260505003004 | 77 | 113 | 4.0 | 13.0 | 0.00 | 0.00 | 0.00 | 73 | 1004.2 |
| 20260505002903 | 77 | 147 | 5.0 | 13.0 | 0.00 | 0.00 | 0.00 | 72 | 1004.3 |
| 20260505002803 | 77 | 124 | 4.0 | 13.0 | 0.00 | 0.00 | 0.00 | 72 | 1004.2 |
| 20260505002702 | 77 | 117 | 4.0 | 13.0 | 0.00 | 0.00 | 0.00 | 72 | 1004.3 |
| 20260505002602 | 77 | 124 | 6.0 | 13.0 | 0.00 | 0.00 | 0.00 | 72 | 1004.2 |
| 20260505002503 | 77 | 120 | 6.0 | 13.0 | 0.00 | 0.00 | 0.00 | 72 | 1004.1 |
| 20260505002402 | 77 | 116 | 4.0 | 11.0 | 0.00 | 0.00 | 0.00 | 72 | 1004.2 |
| 20260505002304 | 77 | 140 | 5.0 | 11.0 | 0.00 | 0.00 | 0.00 | 72 | 1004.2 |
| 20260505002204 | 77 | 116 | 4.0 | 11.0 | 0.00 | 0.00 | 0.00 | 72 | 1004.2 |
| 20260505002104 | 77 | 164 | 5.0 | 11.0 | 0.00 | 0.00 | 0.00 | 72 | 1004.1 |
| 20260505002002 | 77 | 134 | 6.0 | 11.0 | 0.00 | 0.00 | 0.00 | 72 | 1004.2 |
| 20260505001902 | 77 | 113 | 6.0 | 11.0 | 0.00 | 0.00 | 0.00 | 72 | 1004.2 |
| 20260505001803 | 77 | 148 | 4.0 | 10.0 | 0.00 | 0.00 | 0.00 | 72 | 1004.2 |
| 20260505001704 | 77 | 155 | 4.0 | 7.0 | 0.00 | 0.00 | 0.00 | 72 | 1004.2 |
| 20260505001602 | 77 | 137 | 4.0 | 7.0 | 0.00 | 0.00 | 0.00 | 72 | 1004.2 |
| 20260505001504 | 77 | 141 | 4.0 | 7.0 | 0.00 | 0.00 | 0.00 | 72 | 1004.1 |
| 20260505001402 | 77 | 147 | 4.0 | 7.0 | 0.00 | 0.00 | 0.00 | 72 | 1004.1 |
| 20260505001303 | 77 | 138 | 4.0 | 7.0 | 0.00 | 0.00 | 0.00 | 72 | 1004.2 |
| 20260505001203 | 77 | 157 | 3.0 | 10.0 | 0.00 | 0.00 | 0.00 | 72 | 1004.1 |
| 20260505001103 | 77 | 128 | 4.0 | 10.0 | 0.00 | 0.00 | 0.00 | 72 | 1004.2 |
| 20260505001005 | 77 | 138 | 4.0 | 10.0 | 0.00 | 0.00 | 0.00 | 72 | 1004.3 |
| 20260505000902 | 77 | 145 | 5.0 | 10.0 | 0.00 | 0.00 | 0.00 | 72 | 1004.2 |
| 20260505000802 | 77 | 125 | 5.0 | 10.0 | 0.00 | 0.00 | 0.00 | 72 | 1004.2 |
| 20260505000705 | 77 | 138 | 4.0 | 10.0 | 0.00 | 0.00 | 0.00 | 72 | 1004.2 |
| 20260505000603 | 77 | 127 | 3.0 | 10.0 | 0.00 | 0.00 | 0.00 | 72 | 1004.2 |
| 20260505000504 | 78 | 147 | 3.0 | 10.0 | 0.00 | 0.00 | 0.00 | 71 | 1004.2 |
| 20260505000405 | 78 | 158 | 5.0 | 10.0 | 0.00 | 0.00 | 0.00 | 71 | 1004.2 |
| 20260505000303 | 78 | 148 | 5.0 | 10.0 | 0.00 | 0.00 | 0.00 | 71 | 1004.2 |
| 20260505000204 | 78 | 92 | 5.0 | 10.0 | 0.00 | 0.00 | 0.00 | 71 | 1004.3 |
| 20260505000103 | 78 | 130 | 5.0 | 12.0 | 0.00 | 0.00 | 0.00 | 71 | 1004.3 |
| 20260505000003 | 78 | 137 | 4.0 | 12.0 | 0.00 | 0.00 | 0.00 | 71 | 1004.3 |
| 20260504235902 | 78 | 117 | 4.0 | 12.0 | 0.00 | 0.00 | 0.00 | 71 | 1004.3 |
| 20260504235803 | 78 | 147 | 4.0 | 12.0 | 0.00 | 0.00 | 0.00 | 71 | 1004.3 |
| 20260504235703 | 78 | 144 | 4.0 | 12.0 | 0.00 | 0.00 | 0.00 | 71 | 1004.2 |
| 20260504235602 | 78 | 137 | 5.0 | 12.0 | 0.00 | 0.00 | 0.00 | 71 | 1004.3 |
| 20260504235503 | 78 | 158 | 5.0 | 12.0 | 0.00 | 0.00 | 0.00 | 71 | 1004.3 |
| 20260504235404 | 78 | 189 | 6.0 | 12.0 | 0.00 | 0.00 | 0.00 | 71 | 1004.3 |
| 20260504235304 | 78 | 140 | 7.0 | 12.0 | 0.00 | 0.00 | 0.00 | 71 | 1004.3 |
| 20260504235203 | 78 | 131 | 6.0 | 12.0 | 0.00 | 0.00 | 0.00 | 71 | 1004.2 |
| 20260504235103 | 78 | 142 | 4.0 | 10.0 | 0.00 | 0.00 | 0.00 | 71 | 1004.2 |
| 20260504235004 | 78 | 102 | 5.0 | 10.0 | 0.00 | 0.00 | 0.00 | 71 | 1004.2 |
| 20260504234902 | 78 | 197 | 5.0 | 10.0 | 0.00 | 0.00 | 0.00 | 71 | 1004.2 |
| 20260504234803 | 78 | 109 | 4.0 | 10.0 | 0.00 | 0.00 | 0.00 | 71 | 1004.3 |
| 20260504234703 | 77 | 137 | 3.0 | 10.0 | 0.00 | 0.00 | 0.00 | 71 | 1004.3 |
| 20260504234603 | 78 | 140 | 3.0 | 10.0 | 0.00 | 0.00 | 0.00 | 71 | 1004.2 |
| 20260504234503 | 77 | 148 | 4.0 | 10.0 | 0.00 | 0.00 | 0.00 | 71 | 1004.3 |
| 20260504234404 | 78 | 128 | 6.0 | 10.0 | 0.00 | 0.00 | 0.00 | 71 | 1004.3 |
| 20260504234304 | 78 | 151 | 7.0 | 10.0 | 0.00 | 0.00 | 0.00 | 71 | 1004.4 |
| 20260504234203 | 78 | 117 | 6.0 | 10.0 | 0.00 | 0.00 | 0.00 | 71 | 1004.3 |
| 20260504234102 | 78 | 118 | 6.0 | 10.0 | 0.00 | 0.00 | 0.00 | 71 | 1004.4 |
| 20260504234002 | 78 | 137 | 6.0 | 9.0 | 0.00 | 0.00 | 0.00 | 71 | 1004.5 |
| 20260504233903 | 78 | 111 | 4.0 | 9.0 | 0.00 | 0.00 | 0.00 | 71 | 1004.5 |
| 20260504233802 | 78 | 197 | 4.0 | 11.0 | 0.00 | 0.00 | 0.00 | 71 | 1004.5 |
| 20260504233704 | 78 | 128 | 5.0 | 11.0 | 0.00 | 0.00 | 0.00 | 71 | 1004.5 |
| 20260504233603 | 78 | 127 | 5.0 | 13.0 | 0.00 | 0.00 | 0.00 | 71 | 1004.4 |
| 20260504233502 | 78 | 130 | 3.0 | 13.0 | 0.00 | 0.00 | 0.00 | 70 | 1004.5 |
| 20260504233402 | 78 | 130 | 2.0 | 13.0 | 0.00 | 0.00 | 0.00 | 70 | 1004.5 |
| 20260504233303 | 78 | 145 | 2.0 | 13.0 | 0.00 | 0.00 | 0.00 | 70 | 1004.5 |
| 20260504233203 | 78 | 134 | 4.0 | 13.0 | 0.00 | 0.00 | 0.00 | 70 | 1004.6 |
| 20260504233104 | 78 | 166 | 4.0 | 13.0 | 0.00 | 0.00 | 0.00 | 70 | 1004.6 |
| 20260504233005 | 78 | 169 | 5.0 | 13.0 | 0.00 | 0.00 | 0.00 | 69 | 1004.6 |
| 20260504232903 | 78 | 130 | 5.0 | 13.0 | 0.00 | 0.00 | 0.00 | 69 | 1004.5 |
| 20260504232803 | 78 | 140 | 6.0 | 13.0 | 0.00 | 0.00 | 0.00 | 69 | 1004.6 |
| 20260504232702 | 78 | 130 | 5.0 | 13.0 | 0.00 | 0.00 | 0.00 | 69 | 1004.6 |
| 20260504232603 | 78 | 114 | 3.0 | 10.0 | 0.00 | 0.00 | 0.00 | 69 | 1004.5 |
| 20260504232502 | 78 | 164 | 3.0 | 10.0 | 0.00 | 0.00 | 0.00 | 69 | 1004.6 |
| 20260504232402 | 78 | 159 | 4.0 | 10.0 | 0.00 | 0.00 | 0.00 | 69 | 1004.6 |
| 20260504232303 | 78 | 190 | 4.0 | 10.0 | 0.00 | 0.00 | 0.00 | 69 | 1004.6 |
| 20260504232202 | 78 | 144 | 4.0 | 10.0 | 0.00 | 0.00 | 0.00 | 69 | 1004.6 |
| 20260504232103 | 78 | 138 | 5.0 | 10.0 | 0.00 | 0.00 | 0.00 | 69 | 1004.7 |
| 20260504232003 | 78 | 155 | 6.0 | 10.0 | 0.00 | 0.00 | 0.00 | 69 | 1004.8 |
| 20260504231904 | 78 | 157 | 5.0 | 9.0 | 0.00 | 0.00 | 0.00 | 69 | 1004.7 |
| 20260504231803 | 78 | 142 | 4.0 | 9.0 | 0.00 | 0.00 | 0.00 | 69 | 1004.8 |
| 20260504231702 | 78 | 154 | 5.0 | 10.0 | 0.00 | 0.00 | 0.00 | 69 | 1004.8 |
| 20260504231603 | 78 | 127 | 5.0 | 10.0 | 0.00 | 0.00 | 0.00 | 69 | 1004.7 |
| 20260504231504 | 78 | 183 | 5.0 | 10.0 | 0.00 | 0.00 | 0.00 | 69 | 1004.8 |
| 20260504231403 | 78 | 188 | 4.0 | 10.0 | 0.00 | 0.00 | 0.00 | 68 | 1004.8 |
| 20260504231305 | 78 | 202 | 4.0 | 10.0 | 0.00 | 0.00 | 0.00 | 68 | 1004.7 |
| 20260504231202 | 78 | 176 | 4.0 | 10.0 | 0.00 | 0.00 | 0.00 | 68 | 1004.8 |
| 20260504231104 | 78 | 172 | 3.0 | 10.0 | 0.00 | 0.00 | 0.00 | 69 | 1004.8 |
| 20260504231004 | 78 | 120 | 3.0 | 10.0 | 0.00 | 0.00 | 0.00 | 68 | 1004.6 |
| 20260504230904 | 78 | 178 | 4.0 | 10.0 | 0.00 | 0.00 | 0.00 | 68 | 1004.7 |
| 20260504230802 | 78 | 185 | 5.0 | 12.0 | 0.00 | 0.00 | 0.00 | 68 | 1004.7 |
| 20260504230703 | 78 | 206 | 5.0 | 12.0 | 0.00 | 0.00 | 0.00 | 68 | 1004.7 |
| 20260504230603 | 78 | 172 | 4.0 | 12.0 | 0.00 | 0.00 | 0.00 | 68 | 1004.8 |
| 20260504230503 | 78 | 124 | 4.0 | 12.0 | 0.00 | 0.00 | 0.00 | 68 | 1004.9 |
| 20260504230402 | 78 | 144 | 4.0 | 12.0 | 0.00 | 0.00 | 0.00 | 68 | 1004.8 |
| 20260504230304 | 79 | 151 | 4.0 | 12.0 | 0.00 | 0.00 | 0.00 | 68 | 1004.9 |
| 20260504230203 | 78 | 130 | 4.0 | 12.0 | 0.00 | 0.00 | 0.00 | 68 | 1004.8 |
| 20260504230104 | 78 | 154 | 5.0 | 12.0 | 0.00 | 0.00 | 0.00 | 68 | 1004.8 |
| 20260504230005 | 79 | 125 | 7.0 | 12.0 | 0.00 | 0.00 | 0.00 | 68 | 1004.8 |
| 20260504225902 | 79 | 140 | 7.0 | 12.0 | 0.00 | 0.00 | 0.00 | 68 | 1004.7 |
| 20260504225802 | 79 | 141 | 6.0 | 11.0 | 0.00 | 0.00 | 0.00 | 68 | 1004.9 |
| 20260504225702 | 79 | 148 | 4.0 | 11.0 | 0.00 | 0.00 | 0.00 | 68 | 1004.8 |
| 20260504225604 | 79 | 134 | 4.0 | 11.0 | 0.00 | 0.00 | 0.00 | 68 | 1004.7 |
| 20260504225502 | 79 | 118 | 4.0 | 11.0 | 0.00 | 0.00 | 0.00 | 68 | 1004.8 |
| 20260504225402 | 79 | 145 | 5.0 | 11.0 | 0.00 | 0.00 | 0.00 | 68 | 1004.8 |
| 20260504225304 | 79 | 148 | 5.0 | 11.0 | 0.00 | 0.00 | 0.00 | 68 | 1004.9 |
| 20260504225203 | 79 | 168 | 5.0 | 11.0 | 0.00 | 0.00 | 0.00 | 68 | 1004.8 |
| 20260504225103 | 79 | 155 | 5.0 | 11.0 | 0.00 | 0.00 | 0.00 | 68 | 1004.8 |
| 20260504225004 | 79 | 183 | 4.0 | 10.0 | 0.00 | 0.00 | 0.00 | 67 | 1004.8 |
| 20260504224903 | 79 | 195 | 5.0 | 10.0 | 0.00 | 0.00 | 0.00 | 67 | 1004.8 |
| 20260504224803 | 79 | 173 | 4.0 | 10.0 | 0.00 | 0.00 | 0.00 | 67 | 1004.9 |
| 20260504224704 | 79 | 166 | 4.0 | 9.0 | 0.00 | 0.00 | 0.00 | 67 | 1004.9 |
| 20260504224602 | 79 | 183 | 4.0 | 9.0 | 0.00 | 0.00 | 0.00 | 67 | 1004.8 |
| 20260504224504 | 79 | 148 | 4.0 | 9.0 | 0.00 | 0.00 | 0.00 | 67 | 1004.9 |
| 20260504224404 | 79 | 164 | 5.0 | 9.0 | 0.00 | 0.00 | 0.00 | 67 | 1004.9 |
| 20260504224303 | 79 | 192 | 5.0 | 9.0 | 0.00 | 0.00 | 0.00 | 67 | 1004.9 |
| 20260504224203 | 79 | 179 | 4.0 | 9.0 | 0.00 | 0.00 | 0.00 | 67 | 1004.9 |
| 20260504224104 | 79 | 159 | 5.0 | 9.0 | 0.00 | 0.00 | 0.00 | 67 | 1004.9 |
| 20260504224004 | 79 | 147 | 4.0 | 10.0 | 0.00 | 0.00 | 0.00 | 67 | 1005.0 |
| 20260504223904 | 79 | 140 | 4.0 | 12.0 | 0.00 | 0.00 | 0.00 | 67 | 1004.9 |
| 20260504223803 | 79 | 193 | 4.0 | 12.0 | 0.00 | 0.00 | 0.00 | 67 | 1004.9 |
| 20260504223704 | 79 | 189 | 4.0 | 12.0 | 0.00 | 0.00 | 0.00 | 67 | 1004.9 |
| 20260504223603 | 79 | 144 | 5.0 | 12.0 | 0.00 | 0.00 | 0.00 | 66 | 1004.9 |
| 20260504223504 | 79 | 178 | 5.0 | 12.0 | 0.00 | 0.00 | 0.00 | 66 | 1004.8 |
| 20260504223403 | 79 | 178 | 5.0 | 12.0 | 0.00 | 0.00 | 0.00 | 66 | 1005.0 |
| 20260504223302 | 79 | 161 | 5.0 | 12.0 | 0.00 | 0.00 | 0.00 | 66 | 1004.9 |
| 20260504223203 | 79 | 195 | 5.0 | 12.0 | 0.00 | 0.00 | 0.00 | 67 | 1004.9 |
| 20260504223103 | 79 | 155 | 7.0 | 12.0 | 0.00 | 0.00 | 0.00 | 67 | 1004.9 |
| 20260504223004 | 79 | 110 | 7.0 | 11.0 | 0.00 | 0.00 | 0.00 | 67 | 1004.9 |
| 20260504222902 | 79 | 100 | 4.0 | 11.0 | 0.00 | 0.00 | 0.00 | 66 | 1004.9 |
| 20260504222803 | 79 | 154 | 4.0 | 11.0 | 0.00 | 0.00 | 0.00 | 66 | 1005.0 |
| 20260504222703 | 79 | 190 | 4.0 | 11.0 | 0.00 | 0.00 | 0.00 | 66 | 1004.9 |
| 20260504222603 | 79 | 169 | 4.0 | 11.0 | 0.00 | 0.00 | 0.00 | 66 | 1005.0 |
| 20260504222505 | 79 | 190 | 3.0 | 11.0 | 0.00 | 0.00 | 0.00 | 66 | 1005.0 |
| 20260504222403 | 79 | 176 | 4.0 | 11.0 | 0.00 | 0.00 | 0.00 | 66 | 1004.9 |
| 20260504222304 | 79 | 148 | 3.0 | 11.0 | 0.00 | 0.00 | 0.00 | 67 | 1005.0 |
| 20260504222203 | 79 | 171 | 3.0 | 11.0 | 0.00 | 0.00 | 0.00 | 67 | 1005.0 |
| 20260504222104 | 79 | 189 | 5.0 | 11.0 | 0.00 | 0.00 | 0.00 | 66 | 1005.0 |
| 20260504222003 | 79 | 130 | 6.0 | 11.0 | 0.00 | 0.00 | 0.00 | 66 | 1005.0 |
| 20260504221904 | 79 | 168 | 4.0 | 11.0 | 0.00 | 0.00 | 0.00 | 67 | 1005.1 |
| 20260504221802 | 79 | 114 | 2.0 | 7.0 | 0.00 | 0.00 | 0.00 | 67 | 1005.1 |
| 20260504221702 | 79 | 155 | 2.0 | 10.0 | 0.00 | 0.00 | 0.00 | 67 | 1005.1 |
| 20260504221603 | 79 | 164 | 3.0 | 10.0 | 0.00 | 0.00 | 0.00 | 67 | 1005.1 |
| 20260504221504 | 79 | 180 | 3.0 | 10.0 | 0.00 | 0.00 | 0.00 | 67 | 1005.2 |
| 20260504221402 | 79 | 131 | 3.0 | 10.0 | 0.00 | 0.00 | 0.00 | 66 | 1005.2 |
| 20260504221304 | 79 | 154 | 4.0 | 10.0 | 0.00 | 0.00 | 0.00 | 66 | 1005.2 |
| 20260504221202 | 79 | 189 | 6.0 | 10.0 | 0.00 | 0.00 | 0.00 | 66 | 1005.2 |
| 20260504221103 | 79 | 212 | 4.0 | 10.0 | 0.00 | 0.00 | 0.00 | 67 | 1005.1 |
| 20260504221003 | 79 | 188 | 3.0 | 10.0 | 0.00 | 0.00 | 0.00 | 67 | 1005.2 |
| 20260504220902 | 79 | 147 | 4.0 | 10.0 | 0.00 | 0.00 | 0.00 | 67 | 1005.2 |
| 20260504220804 | 79 | 158 | 5.0 | 10.0 | 0.00 | 0.00 | 0.00 | 66 | 1005.3 |
| 20260504220703 | 79 | 185 | 4.0 | 9.0 | 0.00 | 0.00 | 0.00 | 67 | 1005.2 |
| 20260504220603 | 79 | 224 | 4.0 | 9.0 | 0.00 | 0.00 | 0.00 | 67 | 1005.2 |
| 20260504220502 | 79 | 142 | 4.0 | 9.0 | 0.00 | 0.00 | 0.00 | 67 | 1005.2 |
| 20260504220402 | 79 | 165 | 3.0 | 9.0 | 0.00 | 0.00 | 0.00 | 67 | 1005.2 |
| 20260504220304 | 79 | 145 | 4.0 | 10.0 | 0.00 | 0.00 | 0.00 | 67 | 1005.2 |
| 20260504220203 | 79 | 144 | 4.0 | 10.0 | 0.00 | 0.00 | 0.00 | 67 | 1005.1 |
| 20260504220105 | 79 | 148 | 5.0 | 10.0 | 0.00 | 0.00 | 0.00 | 67 | 1005.3 |
| 20260504220003 | 79 | 140 | 4.0 | 10.0 | 0.00 | 0.00 | 0.00 | 67 | 1005.2 |
| 20260504215902 | 79 | 141 | 4.0 | 10.0 | 0.00 | 0.00 | 0.00 | 67 | 1005.3 |
| 20260504215802 | 79 | 178 | 4.0 | 10.0 | 0.00 | 0.00 | 0.00 | 67 | 1005.3 |
| 20260504215702 | 79 | 186 | 4.0 | 10.0 | 0.00 | 0.00 | 0.00 | 66 | 1005.3 |
| 20260504215602 | 79 | 162 | 5.0 | 10.0 | 0.00 | 0.00 | 0.00 | 66 | 1005.3 |
| 20260504215503 | 79 | 171 | 6.0 | 11.0 | 0.00 | 0.00 | 0.00 | 66 | 1005.3 |
| 20260504215402 | 79 | 176 | 4.0 | 11.0 | 0.00 | 0.00 | 0.00 | 66 | 1005.4 |
| 20260504215304 | 79 | 148 | 4.0 | 11.0 | 0.00 | 0.00 | 0.00 | 66 | 1005.4 |
| 20260504215202 | 79 | 169 | 5.0 | 11.0 | 0.00 | 0.00 | 0.00 | 66 | 1005.4 |
| 20260504215104 | 79 | 203 | 4.0 | 11.0 | 0.00 | 0.00 | 0.00 | 66 | 1005.5 |
| 20260504215003 | 79 | 178 | 4.0 | 11.0 | 0.00 | 0.00 | 0.00 | 66 | 1005.5 |
| 20260504214903 | 79 | 116 | 4.0 | 11.0 | 0.00 | 0.00 | 0.00 | 65 | 1005.5 |
| 20260504214804 | 79 | 199 | 5.0 | 11.0 | 0.00 | 0.00 | 0.00 | 65 | 1005.5 |
| 20260504214704 | 79 | 162 | 5.0 | 11.0 | 0.00 | 0.00 | 0.00 | 65 | 1005.5 |
| 20260504214603 | 79 | 157 | 4.0 | 11.0 | 0.00 | 0.00 | 0.00 | 65 | 1005.5 |
| 20260504214504 | 80 | 154 | 4.0 | 9.0 | 0.00 | 0.00 | 0.00 | 65 | 1005.5 |
| 20260504214404 | 79 | 162 | 4.0 | 9.0 | 0.00 | 0.00 | 0.00 | 65 | 1005.5 |
| 20260504214302 | 80 | 176 | 4.0 | 9.0 | 0.00 | 0.00 | 0.00 | 65 | 1005.5 |
| 20260504214203 | 80 | 183 | 5.0 | 9.0 | 0.00 | 0.00 | 0.00 | 65 | 1005.5 |
| 20260504214102 | 80 | 179 | 3.0 | 9.0 | 0.00 | 0.00 | 0.00 | 65 | 1005.5 |
| 20260504214006 | 80 | 171 | 3.0 | 10.0 | 0.00 | 0.00 | 0.00 | 65 | 1005.5 |
| 20260504213902 | 80 | 159 | 3.0 | 10.0 | 0.00 | 0.00 | 0.00 | 65 | 1005.6 |
| 20260504213803 | 80 | 199 | 5.0 | 10.0 | 0.00 | 0.00 | 0.00 | 65 | 1005.5 |
| 20260504213703 | 80 | 164 | 6.0 | 10.0 | 0.00 | 0.00 | 0.00 | 64 | 1005.6 |
| 20260504213603 | 80 | 200 | 4.0 | 10.0 | 0.00 | 0.00 | 0.00 | 64 | 1005.5 |
| 20260504213503 | 80 | 200 | 4.0 | 10.0 | 0.00 | 0.00 | 0.00 | 64 | 1005.6 |
| 20260504213403 | 80 | 200 | 4.0 | 10.0 | 0.00 | 0.00 | 0.00 | 64 | 1005.6 |
| 20260504213303 | 80 | 200 | 4.0 | 10.0 | 0.00 | 0.00 | 0.00 | 64 | 1005.7 |
| 20260504213204 | 80 | 200 | 4.0 | 10.0 | 0.00 | 0.00 | 0.00 | 64 | 1005.7 |
| 20260504213102 | 80 | 195 | 4.0 | 10.0 | 0.00 | 0.00 | 0.00 | 64 | 1005.7 |
| 20260504213004 | 80 | 168 | 2.0 | 9.0 | 0.00 | 0.00 | 0.00 | 64 | 1005.7 |
| 20260504212903 | 80 | 183 | 3.0 | 9.0 | 0.00 | 0.00 | 0.00 | 65 | 1005.6 |
| 20260504212802 | 80 | 141 | 3.0 | 9.0 | 0.00 | 0.00 | 0.00 | 65 | 1005.6 |
| 20260504212703 | 80 | 175 | 2.0 | 9.0 | 0.00 | 0.00 | 0.00 | 65 | 1005.7 |
| 20260504212603 | 80 | 206 | 3.0 | 9.0 | 0.00 | 0.00 | 0.00 | 65 | 1005.7 |
| 20260504212459 | 80 | 213 | 4.0 | 9.0 | 0.00 | 0.00 | 0.00 | 64 | 1005.7 |
| 20260504212354 | 80 | 106 | 4.0 | 9.0 | 0.00 | 0.00 | 0.00 | 64 | 1005.7 |
| 20260504212252 | 81 | 238 | 4.0 | 9.0 | 0.00 | 0.00 | 0.00 | 64 | 1005.7 |
| 20260504212151 | 81 | 162 | 3.0 | 7.0 | 0.00 | 0.00 | 0.00 | 64 | 1005.7 |
| 20260504212051 | 81 | 155 | 2.0 | 7.0 | 0.00 | 0.00 | 0.00 | 64 | 1005.7 |
| 20260504211951 | 81 | 152 | 3.0 | 7.0 | 0.00 | 0.00 | 0.00 | 64 | 1005.7 |
| 20260504211852 | 81 | 158 | 3.0 | 7.0 | 0.00 | 0.00 | 0.00 | 64 | 1005.8 |
| 20260504211752 | 81 | 193 | 3.0 | 9.0 | 0.00 | 0.00 | 0.00 | 63 | 1005.7 |
| 20260504211652 | 81 | 182 | 3.0 | 9.0 | 0.00 | 0.00 | 0.00 | 64 | 1005.7 |
| 20260504211550 | 81 | 172 | 4.0 | 9.0 | 0.00 | 0.00 | 0.00 | 63 | 1005.7 |
| 20260504211452 | 81 | 162 | 3.0 | 9.0 | 0.00 | 0.00 | 0.00 | 63 | 1005.7 |
| 20260504211352 | 80 | 137 | 3.0 | 9.0 | 0.00 | 0.00 | 0.00 | 64 | 1005.8 |
| 20260504211252 | 80 | 180 | 5.0 | 9.0 | 0.00 | 0.00 | 0.00 | 63 | 1005.8 |
| 20260504211152 | 80 | 200 | 4.0 | 9.0 | 0.00 | 0.00 | 0.00 | 63 | 1005.8 |
| 20260504211050 | 80 | 202 | 4.0 | 9.0 | 0.00 | 0.00 | 0.00 | 63 | 1005.9 |
| 20260504210953 | 81 | 161 | 4.0 | 9.0 | 0.00 | 0.00 | 0.00 | 63 | 1005.9 |
| 20260504210850 | 81 | 144 | 4.0 | 10.0 | 0.00 | 0.00 | 0.00 | 63 | 1006.0 |
| 20260504210750 | 81 | 164 | 3.0 | 10.0 | 0.00 | 0.00 | 0.00 | 64 | 1005.8 |
| 20260504210651 | 81 | 131 | 3.0 | 10.0 | 0.00 | 0.00 | 0.00 | 64 | 1005.9 |
| 20260504210551 | 81 | 173 | 2.0 | 10.0 | 0.00 | 0.00 | 0.00 | 63 | 1005.9 |
| 20260504210451 | 81 | 176 | 2.0 | 10.0 | 0.00 | 0.00 | 0.00 | 62 | 1005.9 |
| 20260504210352 | 81 | 196 | 4.0 | 10.0 | 0.00 | 0.00 | 0.00 | 62 | 1005.8 |
| 20260504210253 | 81 | 131 | 4.0 | 10.0 | 0.00 | 0.00 | 0.00 | 62 | 1005.9 |
| 20260504210152 | 81 | 155 | 5.0 | 10.0 | 0.00 | 0.00 | 0.00 | 62 | 1005.9 |
| 20260504210050 | 81 | 128 | 5.0 | 10.0 | 0.00 | 0.00 | 0.00 | 63 | 1005.8 |
| 20260504205952 | 80 | 118 | 4.0 | 10.0 | 0.00 | 0.00 | 0.00 | 63 | 1005.8 |
| 20260504205852 | 80 | 154 | 4.0 | 9.0 | 0.00 | 0.00 | 0.00 | 63 | 1005.8 |
| 20260504205753 | 80 | 111 | 4.0 | 9.0 | 0.00 | 0.00 | 0.00 | 63 | 1005.8 |
| 20260504205652 | 80 | 155 | 4.0 | 9.0 | 0.00 | 0.00 | 0.00 | 63 | 1005.9 |
| 20260504205550 | 80 | 190 | 4.0 | 9.0 | 0.00 | 0.00 | 0.00 | 63 | 1005.9 |
| 20260504205453 | 80 | 197 | 4.0 | 9.0 | 0.00 | 0.00 | 0.00 | 63 | 1005.9 |
| 20260504205350 | 80 | 171 | 4.0 | 7.0 | 0.00 | 0.00 | 0.00 | 62 | 1005.9 |
| 20260504205252 | 80 | 173 | 5.0 | 9.0 | 0.00 | 0.00 | 0.00 | 62 | 1005.9 |
| 20260504205152 | 80 | 168 | 4.0 | 9.0 | 0.00 | 0.00 | 0.00 | 62 | 1005.9 |
| 20260504205050 | 81 | 148 | 4.0 | 9.0 | 0.00 | 0.00 | 0.00 | 62 | 1005.9 |
| 20260504204951 | 81 | 155 | 5.0 | 9.0 | 0.00 | 0.00 | 0.00 | 62 | 1006.0 |
| 20260504204851 | 81 | 154 | 4.0 | 9.0 | 0.00 | 0.00 | 0.00 | 61 | 1006.0 |
| 20260504204751 | 81 | 154 | 3.0 | 10.0 | 0.00 | 0.00 | 0.00 | 61 | 1006.0 |
| 20260504204650 | 81 | 168 | 3.0 | 10.0 | 0.00 | 0.00 | 0.00 | 61 | 1006.1 |
| 20260504204549 | 81 | 168 | 5.0 | 10.0 | 0.00 | 0.00 | 0.00 | 62 | 1006.1 |
| 20260504204451 | 81 | 138 | 5.0 | 10.0 | 0.00 | 0.00 | 0.00 | 62 | 1006.2 |
| 20260504204352 | 81 | 180 | 3.0 | 10.0 | 0.00 | 0.00 | 0.00 | 62 | 1006.1 |
| 20260504204249 | 81 | 189 | 4.0 | 10.0 | 0.00 | 0.00 | 0.00 | 62 | 1006.1 |
| 20260504204150 | 81 | 144 | 5.0 | 10.0 | 0.00 | 0.00 | 0.00 | 61 | 1006.2 |
| 20260504204052 | 81 | 110 | 5.0 | 10.0 | 0.00 | 0.00 | 0.00 | 61 | 1006.2 |
| 20260504203951 | 81 | 138 | 5.0 | 10.0 | 0.00 | 0.00 | 0.00 | 62 | 1006.2 |
| 20260504203851 | 81 | 134 | 5.0 | 10.0 | 0.00 | 0.00 | 0.00 | 62 | 1006.2 |
| 20260504203750 | 81 | 124 | 4.0 | 6.0 | 0.00 | 0.00 | 0.00 | 62 | 1006.2 |
| 20260504203651 | 81 | 144 | 3.0 | 6.0 | 0.00 | 0.00 | 0.00 | 62 | 1006.3 |
| 20260504203551 | 81 | 164 | 3.0 | 6.0 | 0.00 | 0.00 | 0.00 | 62 | 1006.3 |
| 20260504203450 | 81 | 179 | 4.0 | 6.0 | 0.00 | 0.00 | 0.00 | 62 | 1006.3 |
| 20260504203352 | 81 | 147 | 3.0 | 7.0 | 0.00 | 0.00 | 0.00 | 62 | 1006.2 |
| 20260504203249 | 81 | 180 | 2.0 | 7.0 | 0.00 | 0.00 | 0.00 | 62 | 1006.2 |
| 20260504203151 | 81 | 199 | 2.0 | 7.0 | 0.00 | 0.00 | 0.00 | 62 | 1006.1 |
| 20260504203050 | 81 | 216 | 3.0 | 7.0 | 0.00 | 0.00 | 0.00 | 62 | 1006.2 |
| 20260504202951 | 81 | 188 | 2.0 | 7.0 | 0.00 | 0.00 | 0.00 | 61 | 1006.3 |
| 20260504202849 | 81 | 186 | 2.0 | 10.0 | 0.00 | 0.00 | 0.00 | 62 | 1006.3 |
| 20260504202749 | 81 | 166 | 2.0 | 10.0 | 0.00 | 0.00 | 0.00 | 62 | 1006.2 |
| 20260504202650 | 81 | 175 | 3.0 | 10.0 | 0.00 | 0.00 | 0.00 | 62 | 1006.2 |
| 20260504202550 | 81 | 165 | 4.0 | 10.0 | 0.00 | 0.00 | 0.00 | 61 | 1006.2 |
| 20260504202450 | 81 | 151 | 3.0 | 10.0 | 0.00 | 0.00 | 0.00 | 62 | 1006.2 |
| 20260504202351 | 81 | 159 | 4.0 | 10.0 | 0.00 | 0.00 | 0.00 | 61 | 1006.2 |
| 20260504202249 | 81 | 162 | 5.0 | 10.0 | 0.00 | 0.00 | 0.00 | 61 | 1006.3 |
| 20260504202150 | 81 | 107 | 5.0 | 10.0 | 0.00 | 0.00 | 0.00 | 61 | 1006.4 |
| 20260504202050 | 81 | 117 | 5.0 | 10.0 | 0.00 | 0.00 | 0.00 | 61 | 1006.4 |
| 20260504201950 | 82 | 140 | 5.0 | 10.0 | 0.00 | 0.00 | 0.00 | 61 | 1006.5 |
| 20260504201850 | 82 | 207 | 4.0 | 7.0 | 0.00 | 0.00 | 0.00 | 62 | 1006.5 |
| 20260504201749 | 82 | 185 | 4.0 | 7.0 | 0.00 | 0.00 | 0.00 | 62 | 1006.4 |
| 20260504201649 | 82 | 133 | 4.0 | 7.0 | 0.00 | 0.00 | 0.00 | 62 | 1006.5 |
| 20260504201549 | 81 | 179 | 4.0 | 7.0 | 0.00 | 0.00 | 0.00 | 63 | 1006.6 |
| 20260504201449 | 81 | 162 | 4.0 | 7.0 | 0.00 | 0.00 | 0.00 | 62 | 1006.5 |
| 20260504201350 | 81 | 120 | 4.0 | 7.0 | 0.00 | 0.00 | 0.00 | 62 | 1006.6 |
| 20260504201251 | 81 | 137 | 3.0 | 7.0 | 0.00 | 0.00 | 0.00 | 62 | 1006.6 |
| 20260504201145 | 81 | 145 | 3.0 | 7.0 | 0.00 | 0.00 | 0.00 | 61 | 1006.6 |
| 20260504201045 | 81 | 203 | 3.0 | 7.0 | 0.00 | 0.00 | 0.00 | 62 | 1006.7 |
| 20260504200940 | 81 | 200 | 4.0 | 7.0 | 0.00 | 0.00 | 0.00 | 62 | 1006.7 |
| 20260504200839 | 81 | 133 | 4.0 | 7.0 | 0.00 | 0.00 | 0.00 | 63 | 1006.7 |
| 20260504200732 | 81 | 140 | 4.0 | 7.0 | 0.00 | 0.00 | 0.00 | 63 | 1006.8 |
| 20260504200632 | 80 | 166 | 4.0 | 7.0 | 0.00 | 0.00 | 0.00 | 63 | 1006.8 |
| 20260504200532 | 80 | 138 | 4.0 | 9.0 | 0.00 | 0.00 | 0.00 | 63 | 1006.8 |
| 20260504200434 | 80 | 142 | 4.0 | 9.0 | 0.00 | 0.00 | 0.00 | 62 | 1006.9 |
| 20260504200332 | 80 | 151 | 4.0 | 9.0 | 0.00 | 0.00 | 0.00 | 62 | 1006.9 |
| 20260504200227 | 80 | 164 | 4.0 | 9.0 | 0.00 | 0.00 | 0.00 | 62 | 1006.9 |
| 20260504200124 | 80 | 152 | 3.0 | 9.0 | 0.00 | 0.00 | 0.00 | 62 | 1006.9 |
| 20260504200022 | 80 | 162 | 2.0 | 9.0 | 0.00 | 0.00 | 0.00 | 62 | 1006.8 |
| 20260504195915 | 80 | 171 | 2.0 | 9.0 | 0.00 | 0.00 | 0.00 | 62 | 1006.9 |
| 20260504195811 | 81 | 173 | 3.0 | 9.0 | 0.00 | 0.00 | 0.00 | 62 | 1006.9 |
| 20260504195704 | 81 | 157 | 4.0 | 9.0 | 0.00 | 0.00 | 0.00 | 63 | 1006.9 |
| 20260504195602 | 81 | 147 | 4.0 | 7.0 | 0.00 | 0.00 | 0.00 | 63 | 1006.9 |
| 20260504195503 | 80 | 142 | 4.0 | 7.0 | 0.00 | 0.00 | 0.00 | 63 | 1006.9 |
| 20260504195403 | 80 | 195 | 4.0 | 7.0 | 0.00 | 0.00 | 0.00 | 63 | 1007.0 |
| 20260504195304 | 80 | 173 | 3.0 | 7.0 | 0.00 | 0.00 | 0.00 | 63 | 1006.9 |
| 20260504195203 | 80 | 102 | 3.0 | 7.0 | 0.00 | 0.00 | 0.00 | 63 | 1007.0 |
| 20260504195103 | 80 | 166 | 4.0 | 9.0 | 0.00 | 0.00 | 0.00 | 63 | 1007.0 |
| 20260504195002 | 81 | 134 | 4.0 | 9.0 | 0.00 | 0.00 | 0.00 | 61 | 1007.0 |
| 20260504194902 | 81 | 149 | 4.0 | 9.0 | 0.00 | 0.00 | 0.00 | 61 | 1007.0 |
| 20260504194802 | 81 | 149 | 4.0 | 9.0 | 0.00 | 0.00 | 0.00 | 61 | 1007.0 |
| 20260504194702 | 81 | 145 | 5.0 | 9.0 | 0.00 | 0.00 | 0.00 | 62 | 1007.0 |
| 20260504194603 | 81 | 125 | 5.0 | 9.0 | 0.00 | 0.00 | 0.00 | 61 | 1007.0 |
| 20260504194503 | 81 | 107 | 5.0 | 9.0 | 0.00 | 0.00 | 0.00 | 61 | 1007.0 |
| 20260504194402 | 81 | 193 | 5.0 | 9.0 | 0.00 | 0.00 | 0.00 | 61 | 1007.1 |
| 20260504194303 | 81 | 188 | 5.0 | 9.0 | 0.00 | 0.00 | 0.00 | 62 | 1007.1 |
| 20260504194202 | 81 | 124 | 5.0 | 9.0 | 0.00 | 0.00 | 0.00 | 63 | 1007.0 |
| 20260504194102 | 80 | 210 | 4.0 | 9.0 | 0.00 | 0.00 | 0.00 | 62 | 1007.2 |
| 20260504194003 | 80 | 135 | 4.0 | 9.0 | 0.00 | 0.00 | 0.00 | 62 | 1007.1 |
| 20260504193902 | 80 | 214 | 4.0 | 9.0 | 0.00 | 0.00 | 0.00 | 62 | 1007.1 |
| 20260504193803 | 80 | 172 | 3.0 | 7.0 | 0.00 | 0.00 | 0.00 | 62 | 1007.1 |
| 20260504193703 | 80 | 137 | 4.0 | 7.0 | 0.00 | 0.00 | 0.00 | 62 | 1007.1 |
| 20260504193602 | 80 | 134 | 3.0 | 7.0 | 0.00 | 0.00 | 0.00 | 63 | 1007.1 |
| 20260504193503 | 80 | 127 | 4.0 | 7.0 | 0.00 | 0.00 | 0.00 | 63 | 1007.2 |
| 20260504193403 | 80 | 155 | 4.0 | 6.0 | 0.00 | 0.00 | 0.00 | 63 | 1007.2 |
| 20260504193303 | 80 | 159 | 3.0 | 6.0 | 0.00 | 0.00 | 0.00 | 63 | 1007.2 |
| 20260504193202 | 80 | 166 | 3.0 | 9.0 | 0.00 | 0.00 | 0.00 | 62 | 1007.2 |
| 20260504193103 | 80 | 149 | 3.0 | 9.0 | 0.00 | 0.00 | 0.00 | 62 | 1007.3 |
| 20260504193002 | 80 | 173 | 3.0 | 9.0 | 0.00 | 0.00 | 0.00 | 62 | 1007.3 |
| 20260504192905 | 80 | 137 | 3.0 | 9.0 | 0.00 | 0.00 | 0.00 | 62 | 1007.3 |
| 20260504192802 | 80 | 151 | 2.0 | 9.0 | 0.00 | 0.00 | 0.00 | 62 | 1007.3 |
| 20260504192703 | 80 | 204 | 3.0 | 9.0 | 0.00 | 0.00 | 0.00 | 63 | 1007.2 |
| 20260504192603 | 80 | 148 | 3.0 | 9.0 | 0.00 | 0.00 | 0.00 | 62 | 1007.2 |
| 20260504192504 | 80 | 164 | 4.0 | 9.0 | 0.00 | 0.00 | 0.00 | 63 | 1007.3 |
| 20260504192405 | 80 | 151 | 5.0 | 9.0 | 0.00 | 0.00 | 0.00 | 63 | 1007.2 |
| 20260504192304 | 80 | 110 | 4.0 | 9.0 | 0.00 | 0.00 | 0.00 | 62 | 1007.3 |
| 20260504192203 | 80 | 189 | 2.0 | 9.0 | 0.00 | 0.00 | 0.00 | 62 | 1007.3 |
| 20260504192101 | 80 | 166 | 4.0 | 9.0 | 0.00 | 0.00 | 0.00 | 62 | 1007.3 |
| 20260504192004 | 80 | 188 | 5.0 | 9.0 | 0.00 | 0.00 | 0.00 | 62 | 1007.3 |
| 20260504191903 | 80 | 162 | 4.0 | 9.0 | 0.00 | 0.00 | 0.00 | 63 | 1007.4 |
| 20260504191803 | 80 | 152 | 3.0 | 11.0 | 0.00 | 0.00 | 0.00 | 62 | 1007.3 |
| 20260504191703 | 80 | 203 | 3.0 | 11.0 | 0.00 | 0.00 | 0.00 | 62 | 1007.3 |
| 20260504191602 | 80 | 165 | 3.0 | 11.0 | 0.00 | 0.00 | 0.00 | 61 | 1007.3 |
| 20260504191502 | 80 | 189 | 3.0 | 11.0 | 0.00 | 0.00 | 0.00 | 62 | 1007.3 |
| 20260504191403 | 80 | 165 | 4.0 | 11.0 | 0.00 | 0.00 | 0.00 | 61 | 1007.3 |
| 20260504191303 | 81 | 185 | 4.0 | 11.0 | 0.00 | 0.00 | 0.00 | 62 | 1007.4 |
| 20260504191203 | 81 | 113 | 4.0 | 11.0 | 0.00 | 0.00 | 0.00 | 61 | 1007.5 |
| 20260504191102 | 81 | 171 | 4.0 | 11.0 | 0.00 | 0.00 | 0.00 | 61 | 1007.5 |
| 20260504191004 | 81 | 199 | 5.0 | 11.0 | 0.00 | 0.00 | 0.00 | 61 | 1007.5 |
| 20260504190903 | 81 | 109 | 4.0 | 11.0 | 0.00 | 0.00 | 0.00 | 61 | 1007.6 |
| 20260504190803 | 81 | 133 | 2.0 | 9.0 | 0.00 | 0.00 | 0.00 | 61 | 1007.4 |
| 20260504190705 | 80 | 127 | 2.0 | 9.0 | 0.00 | 0.00 | 0.00 | 62 | 1007.4 |
| 20260504190603 | 80 | 176 | 4.0 | 9.0 | 0.00 | 0.00 | 0.00 | 62 | 1007.5 |
| 20260504190506 | 80 | 155 | 4.0 | 9.0 | 0.00 | 0.00 | 0.00 | 61 | 1007.4 |
| 20260504190401 | 80 | 135 | 6.0 | 9.0 | 0.00 | 0.00 | 0.00 | 61 | 1007.5 |
| 20260504190304 | 81 | 135 | 5.0 | 9.0 | 0.00 | 0.00 | 0.00 | 61 | 1007.4 |
| 20260504190202 | 81 | 172 | 3.0 | 7.0 | 0.00 | 0.00 | 0.00 | 62 | 1007.4 |
| 20260504190003 | 81 | 138 | 5.0 | 7.0 | 0.00 | 0.00 | 0.00 | 62 | 1007.3 |
| 20260504185903 | 81 | 138 | 5.0 | 7.0 | 0.00 | 0.00 | 0.00 | 62 | 1007.4 |
| 20260504185804 | 80 | 197 | 3.0 | 9.0 | 0.00 | 0.00 | 0.00 | 63 | 1007.4 |
| 20260504185701 | 80 | 166 | 3.0 | 9.0 | 0.00 | 0.00 | 0.00 | 61 | 1007.5 |
| 20260504185604 | 80 | 196 | 4.0 | 10.0 | 0.00 | 0.00 | 0.00 | 61 | 1007.6 |
| 20260504185502 | 80 | 179 | 4.0 | 10.0 | 0.00 | 0.00 | 0.00 | 62 | 1007.7 |
| 20260504185403 | 81 | 199 | 3.0 | 10.0 | 0.00 | 0.00 | 0.00 | 62 | 1007.7 |
| 20260504185304 | 80 | 196 | 3.0 | 11.0 | 0.00 | 0.00 | 0.00 | 62 | 1007.6 |
| 20260504185202 | 80 | 110 | 4.0 | 11.0 | 0.00 | 0.00 | 0.00 | 63 | 1007.6 |
| 20260504185101 | 80 | 179 | 5.0 | 11.0 | 0.00 | 0.00 | 0.00 | 62 | 1007.7 |
| 20260504185004 | 80 | 179 | 5.0 | 11.0 | 0.00 | 0.00 | 0.00 | 62 | 1007.7 |
| 20260504184902 | 80 | 162 | 5.0 | 11.0 | 0.00 | 0.00 | 0.00 | 62 | 1007.7 |
| 20260504184803 | 80 | 190 | 5.0 | 11.0 | 0.00 | 0.00 | 0.00 | 62 | 1007.7 |
| 20260504184703 | 80 | 175 | 6.0 | 11.0 | 0.00 | 0.00 | 0.00 | 60 | 1007.7 |
| 20260504184602 | 81 | 182 | 6.0 | 11.0 | 0.00 | 0.00 | 0.00 | 61 | 1007.6 |
| 20260504184503 | 81 | 130 | 6.0 | 11.0 | 0.00 | 0.00 | 0.00 | 61 | 1007.7 |
| 20260504184403 | 81 | 118 | 6.0 | 11.0 | 0.00 | 0.00 | 0.00 | 61 | 1007.7 |
| 20260504184304 | 81 | 125 | 5.0 | 10.0 | 0.00 | 0.00 | 0.00 | 61 | 1007.7 |
| 20260504184202 | 81 | 151 | 4.0 | 10.0 | 0.00 | 0.00 | 0.00 | 63 | 1007.8 |
| 20260504184104 | 80 | 142 | 3.0 | 10.0 | 0.00 | 0.00 | 0.00 | 62 | 1007.8 |
| 20260504184003 | 80 | 157 | 4.0 | 10.0 | 0.00 | 0.00 | 0.00 | 61 | 1007.8 |
| 20260504183904 | 80 | 190 | 4.0 | 10.0 | 0.00 | 0.00 | 0.00 | 61 | 1007.9 |
| 20260504183804 | 80 | 152 | 4.0 | 10.0 | 0.00 | 0.00 | 0.00 | 61 | 1007.9 |
| 20260504183703 | 80 | 206 | 5.0 | 10.0 | 0.00 | 0.00 | 0.00 | 61 | 1007.8 |
| 20260504183604 | 80 | 173 | 4.0 | 10.0 | 0.00 | 0.00 | 0.00 | 62 | 1007.8 |
| 20260504183502 | 80 | 158 | 3.0 | 10.0 | 0.00 | 0.00 | 0.00 | 62 | 1007.8 |
| 20260504183403 | 81 | 182 | 2.0 | 11.0 | 0.00 | 0.00 | 0.00 | 61 | 1007.7 |
| 20260504183302 | 81 | 171 | 4.0 | 11.0 | 0.00 | 0.00 | 0.00 | 61 | 1007.8 |
| 20260504183200 | 81 | 190 | 5.0 | 11.0 | 0.00 | 0.00 | 0.00 | 61 | 1007.8 |
| 20260504183059 | 81 | 113 | 4.0 | 11.0 | 0.00 | 0.00 | 0.00 | 62 | 1007.8 |
| 20260504182954 | 81 | 138 | 5.0 | 11.0 | 0.00 | 0.00 | 0.00 | 62 | 1007.8 |
| 20260504182851 | 80 | 137 | 5.0 | 11.0 | 0.00 | 0.00 | 0.00 | 61 | 1007.8 |
| 20260504182751 | 80 | 175 | 4.0 | 11.0 | 0.00 | 0.00 | 0.00 | 60 | 1007.9 |
| 20260504182649 | 80 | 161 | 5.0 | 11.0 | 0.00 | 0.00 | 0.00 | 61 | 1007.9 |
| 20260504182548 | 81 | 148 | 5.0 | 11.0 | 0.00 | 0.00 | 0.00 | 61 | 1008.0 |
| 20260504182447 | 80 | 120 | 5.0 | 11.0 | 0.00 | 0.00 | 0.00 | 61 | 1007.9 |
| 20260504182346 | 80 | 171 | 5.0 | 10.0 | 0.00 | 0.00 | 0.00 | 62 | 1007.9 |
| 20260504182248 | 80 | 157 | 4.0 | 10.0 | 0.00 | 0.00 | 0.00 | 62 | 1007.9 |
| 20260504182148 | 80 | 192 | 4.0 | 10.0 | 0.00 | 0.00 | 0.00 | 62 | 1007.8 |
| 20260504182046 | 80 | 158 | 3.0 | 12.0 | 0.00 | 0.00 | 0.00 | 63 | 1007.9 |
| 20260504181947 | 80 | 176 | 4.0 | 12.0 | 0.00 | 0.00 | 0.00 | 62 | 1007.8 |
| 20260504181848 | 80 | 186 | 4.0 | 12.0 | 0.00 | 0.00 | 0.00 | 62 | 1007.8 |
| 20260504181746 | 80 | 202 | 4.0 | 12.0 | 0.00 | 0.00 | 0.00 | 62 | 1007.9 |
| 20260504181648 | 80 | 164 | 5.0 | 12.0 | 0.00 | 0.00 | 0.00 | 62 | 1007.8 |
| 20260504181546 | 80 | 164 | 4.0 | 12.0 | 0.00 | 0.00 | 0.00 | 61 | 1007.9 |
| 20260504181446 | 80 | 127 | 3.0 | 12.0 | 0.00 | 0.00 | 0.00 | 61 | 1007.9 |
| 20260504181347 | 80 | 145 | 6.0 | 12.0 | 0.00 | 0.00 | 0.00 | 61 | 1007.9 |
| 20260504181247 | 80 | 179 | 6.0 | 12.0 | 0.00 | 0.00 | 0.00 | 61 | 1008.0 |
| 20260504181148 | 80 | 131 | 5.0 | 12.0 | 0.00 | 0.00 | 0.00 | 62 | 1008.1 |
| 20260504181047 | 80 | 120 | 3.0 | 11.0 | 0.00 | 0.00 | 0.00 | 63 | 1008.1 |
| 20260504180946 | 80 | 161 | 3.0 | 11.0 | 0.00 | 0.00 | 0.00 | 63 | 1008.1 |
| 20260504180848 | 80 | 166 | 5.0 | 11.0 | 0.00 | 0.00 | 0.00 | 62 | 1008.1 |
| 20260504180747 | 80 | 116 | 5.0 | 11.0 | 0.00 | 0.00 | 0.00 | 62 | 1008.2 |
| 20260504180647 | 80 | 169 | 4.0 | 11.0 | 0.00 | 0.00 | 0.00 | 62 | 1008.1 |
| 20260504180546 | 79 | 149 | 4.0 | 11.0 | 0.00 | 0.00 | 0.00 | 62 | 1008.2 |
| 20260504180447 | 79 | 175 | 5.0 | 12.0 | 0.00 | 0.00 | 0.00 | 62 | 1008.2 |
| 20260504180346 | 79 | 206 | 5.0 | 12.0 | 0.00 | 0.00 | 0.00 | 61 | 1008.2 |
| 20260504180246 | 80 | 182 | 5.0 | 12.0 | 0.00 | 0.00 | 0.00 | 61 | 1008.1 |
| 20260504180148 | 80 | 206 | 6.0 | 12.0 | 0.00 | 0.00 | 0.00 | 64 | 1008.2 |
| 20260504180047 | 80 | 220 | 4.0 | 12.0 | 0.00 | 0.00 | 0.00 | 64 | 1008.1 |
| 20260504175947 | 80 | 138 | 3.0 | 12.0 | 0.00 | 0.00 | 0.00 | 62 | 1008.2 |
| 20260504175847 | 80 | 175 | 3.0 | 12.0 | 0.00 | 0.00 | 0.00 | 62 | 1008.1 |
| 20260504175748 | 80 | 159 | 4.0 | 12.0 | 0.00 | 0.00 | 0.00 | 63 | 1008.2 |
| 20260504175647 | 80 | 159 | 7.0 | 12.0 | 0.00 | 0.00 | 0.00 | 63 | 1008.1 |
| 20260504175547 | 80 | 130 | 7.0 | 12.0 | 0.00 | 0.00 | 0.00 | 63 | 1008.2 |
| 20260504175447 | 80 | 161 | 5.0 | 9.0 | 0.00 | 0.00 | 0.00 | 63 | 1008.1 |
| 20260504175345 | 80 | 179 | 3.0 | 9.0 | 0.00 | 0.00 | 0.00 | 63 | 1008.3 |
| 20260504175246 | 80 | 151 | 3.0 | 9.0 | 0.00 | 0.00 | 0.00 | 63 | 1008.3 |
| 20260504175146 | 79 | 179 | 5.0 | 9.0 | 0.00 | 0.00 | 0.00 | 63 | 1008.3 |
| 20260504175047 | 79 | 183 | 5.0 | 9.0 | 0.00 | 0.00 | 0.00 | 62 | 1008.3 |
| 20260504174947 | 80 | 196 | 5.0 | 9.0 | 0.00 | 0.00 | 0.00 | 63 | 1008.3 |
| 20260504174846 | 80 | 161 | 5.0 | 9.0 | 0.00 | 0.00 | 0.00 | 63 | 1008.4 |
| 20260504174745 | 80 | 182 | 6.0 | 7.0 | 0.00 | 0.00 | 0.00 | 62 | 1008.4 |
| 20260504174647 | 79 | 141 | 6.0 | 7.0 | 0.00 | 0.00 | 0.00 | 63 | 1008.4 |
| 20260504174548 | 79 | 149 | 4.0 | 7.0 | 0.00 | 0.00 | 0.00 | 62 | 1008.4 |
| 20260504174447 | 79 | 165 | 5.0 | 7.0 | 0.00 | 0.00 | 0.00 | 63 | 1008.5 |
| 20260504174347 | 79 | 189 | 5.0 | 7.0 | 0.00 | 0.00 | 0.00 | 63 | 1008.5 |
| 20260504174245 | 79 | 166 | 4.0 | 7.0 | 0.00 | 0.00 | 0.00 | 62 | 1008.5 |
| 20260504174146 | 80 | 197 | 4.0 | 7.0 | 0.00 | 0.00 | 0.00 | 62 | 1008.6 |
| 20260504174045 | 80 | 189 | 3.0 | 7.0 | 0.00 | 0.00 | 0.00 | 61 | 1008.5 |
| 20260504173946 | 80 | 141 | 3.0 | 7.0 | 0.00 | 0.00 | 0.00 | 62 | 1008.5 |
| 20260504173845 | 80 | 185 | 4.0 | 7.0 | 0.00 | 0.00 | 0.00 | 61 | 1008.6 |
| 20260504173748 | 80 | 145 | 5.0 | 7.0 | 0.00 | 0.00 | 0.00 | 63 | 1008.6 |
| 20260504173647 | 80 | 127 | 3.0 | 7.0 | 0.00 | 0.00 | 0.00 | 62 | 1008.7 |
| 20260504173545 | 80 | 154 | 3.0 | 6.0 | 0.00 | 0.00 | 0.00 | 62 | 1008.8 |
| 20260504173446 | 80 | 117 | 3.0 | 10.0 | 0.00 | 0.00 | 0.00 | 63 | 1008.6 |
| 20260504173346 | 80 | 164 | 2.0 | 10.0 | 0.00 | 0.00 | 0.00 | 63 | 1008.6 |
| 20260504173246 | 80 | 168 | 3.0 | 10.0 | 0.00 | 0.00 | 0.00 | 63 | 1008.7 |
| 20260504173147 | 80 | 134 | 3.0 | 10.0 | 0.00 | 0.00 | 0.00 | 63 | 1008.7 |
| 20260504173046 | 80 | 128 | 4.0 | 10.0 | 0.00 | 0.00 | 0.00 | 63 | 1008.7 |
| 20260504172947 | 80 | 165 | 4.0 | 10.0 | 0.00 | 0.00 | 0.00 | 63 | 1008.7 |
| 20260504172846 | 80 | 141 | 4.0 | 10.0 | 0.00 | 0.00 | 0.00 | 63 | 1008.7 |
| 20260504172746 | 79 | 173 | 3.0 | 10.0 | 0.00 | 0.00 | 0.00 | 62 | 1008.7 |
| 20260504172647 | 79 | 179 | 5.0 | 10.0 | 0.00 | 0.00 | 0.00 | 61 | 1008.7 |
| 20260504172545 | 80 | 185 | 5.0 | 10.0 | 0.00 | 0.00 | 0.00 | 62 | 1008.7 |
| 20260504172446 | 80 | 158 | 3.0 | 9.0 | 0.00 | 0.00 | 0.00 | 63 | 1008.6 |
| 20260504172346 | 80 | 171 | 4.0 | 9.0 | 0.00 | 0.00 | 0.00 | 63 | 1008.6 |
| 20260504172247 | 79 | 118 | 3.0 | 9.0 | 0.00 | 0.00 | 0.00 | 64 | 1008.6 |
| 20260504172145 | 79 | 140 | 2.0 | 9.0 | 0.00 | 0.00 | 0.00 | 63 | 1008.7 |
| 20260504172045 | 78 | 140 | 4.0 | 9.0 | 0.00 | 0.00 | 0.00 | 63 | 1008.7 |
| 20260504171946 | 78 | 128 | 4.0 | 9.0 | 0.00 | 0.00 | 0.00 | 62 | 1008.8 |
| 20260504171840 | 78 | 172 | 5.0 | 9.0 | 0.00 | 0.00 | 0.00 | 61 | 1008.8 |
| 20260504171738 | 78 | 149 | 5.0 | 9.0 | 0.00 | 0.00 | 0.00 | 63 | 1008.8 |
| 20260504171637 | 78 | 147 | 4.0 | 9.0 | 0.00 | 0.00 | 0.00 | 63 | 1008.8 |
| 20260504171532 | 78 | 159 | 3.0 | 9.0 | 0.00 | 0.00 | 0.00 | 64 | 1008.9 |
| 20260504171431 | 78 | 141 | 3.0 | 9.0 | 0.00 | 0.00 | 0.00 | 64 | 1008.9 |
| 20260504171332 | 78 | 171 | 2.0 | 9.0 | 0.00 | 0.00 | 0.00 | 65 | 1009.0 |
| 20260504171231 | 77 | 159 | 3.0 | 10.0 | 0.00 | 0.00 | 0.00 | 65 | 1009.0 |
| 20260504171131 | 77 | 128 | 5.0 | 10.0 | 0.00 | 0.00 | 0.00 | 65 | 1009.1 |
| 20260504171032 | 77 | 149 | 4.0 | 10.0 | 0.00 | 0.00 | 0.00 | 64 | 1009.1 |
| 20260504170932 | 77 | 155 | 4.0 | 10.0 | 0.00 | 0.00 | 0.00 | 64 | 1009.2 |
| 20260504170831 | 77 | 173 | 3.0 | 10.0 | 0.00 | 0.00 | 0.00 | 63 | 1009.1 |
| 20260504170716 | 78 | 210 | 4.0 | 11.0 | 0.00 | 0.00 | 0.00 | 64 | 1009.2 |
| 20260504170603 | 78 | 188 | 3.0 | 11.0 | 0.00 | 0.00 | 0.00 | 64 | 1009.1 |
| 20260504170502 | 78 | 145 | 4.0 | 18.0 | 0.00 | 0.00 | 0.00 | 64 | 1009.2 |
| 20260504170405 | 78 | 138 | 5.0 | 18.0 | 0.00 | 0.00 | 0.00 | 64 | 1009.1 |
| 20260504170302 | 78 | 185 | 4.0 | 18.0 | 0.00 | 0.00 | 0.00 | 63 | 1009.1 |
| 20260504170203 | 78 | 189 | 5.0 | 18.0 | 0.00 | 0.00 | 0.00 | 63 | 1009.0 |
| 20260504160404 | 76 | 155 | 6.0 | 13.0 | 0.00 | 0.00 | 0.00 | 66 | 1009.7 |
| 20260504160302 | 76 | 168 | 7.0 | 13.0 | 0.00 | 0.00 | 0.00 | 66 | 1009.7 |
| 20260504160203 | 76 | 202 | 6.0 | 13.0 | 0.00 | 0.00 | 0.00 | 67 | 1009.8 |
| 20260504151102 | 74 | 154 | 4.0 | 11.0 | 0.00 | 0.00 | 0.00 | 69 | 1009.8 |
| 20260504151002 | 74 | 180 | 4.0 | 11.0 | 0.00 | 0.00 | 0.00 | 69 | 1009.8 |
| 20260504150904 | 74 | 175 | 4.0 | 11.0 | 0.00 | 0.00 | 0.00 | 69 | 1009.8 |
| 20260504150804 | 74 | 145 | 4.0 | 11.0 | 0.00 | 0.00 | 0.00 | 69 | 1009.8 |
| 20260504150702 | 74 | 165 | 5.0 | 14.0 | 0.00 | 0.00 | 0.00 | 69 | 1009.8 |
| 20260504150602 | 74 | 171 | 6.0 | 14.0 | 0.00 | 0.00 | 0.00 | 69 | 1009.9 |
| 20260504150504 | 74 | 121 | 6.0 | 14.0 | 0.00 | 0.00 | 0.00 | 69 | 1009.9 |
| 20260504150403 | 74 | 154 | 5.0 | 14.0 | 0.00 | 0.00 | 0.00 | 69 | 1009.8 |
| 20260504150302 | 74 | 149 | 4.0 | 14.0 | 0.00 | 0.00 | 0.00 | 68 | 1009.8 |
| 20260504150203 | 74 | 161 | 5.0 | 14.0 | 0.00 | 0.00 | 0.00 | 69 | 1009.8 |
| 20260504150104 | 74 | 186 | 6.0 | 14.0 | 0.00 | 0.00 | 0.00 | 69 | 1009.9 |
| 20260504141242 | 71 | 148 | 4.0 | 10.0 | 0.00 | 0.00 | 0.00 | 70 | 1009.9 |
| 20260504141142 | 71 | 165 | 5.0 | 10.0 | 0.00 | 0.00 | 0.00 | 70 | 1010.0 |
| 20260504141042 | 71 | 144 | 6.0 | 10.0 | 0.00 | 0.00 | 0.00 | 70 | 1009.9 |
| 20260504140941 | 71 | 102 | 5.0 | 10.0 | 0.00 | 0.00 | 0.00 | 70 | 1009.9 |
| 20260504140841 | 71 | 106 | 3.0 | 7.0 | 0.00 | 0.00 | 0.00 | 71 | 1009.9 |
| 20260504140740 | 71 | 102 | 4.0 | 7.0 | 0.00 | 0.00 | 0.00 | 70 | 1009.9 |
| 20260504140642 | 71 | 116 | 4.0 | 7.0 | 0.00 | 0.00 | 0.00 | 70 | 1009.9 |
| 20260504140542 | 71 | 116 | 4.0 | 7.0 | 0.00 | 0.00 | 0.00 | 70 | 1009.8 |
| 20260504140441 | 71 | 107 | 4.0 | 7.0 | 0.00 | 0.00 | 0.00 | 70 | 1009.8 |
| 20260504140342 | 71 | 151 | 4.0 | 7.0 | 0.00 | 0.00 | 0.00 | 70 | 1009.9 |
| 20260504140240 | 70 | 127 | 3.0 | 7.0 | 0.00 | 0.00 | 0.00 | 71 | 1010.0 |
| 20260504140142 | 70 | 164 | 2.0 | 7.0 | 0.00 | 0.00 | 0.00 | 71 | 1010.0 |
| 20260504130803 | 66 | 106 | 4.0 | 6.0 | 0.00 | 0.00 | 0.00 | 73 | 1009.9 |
| 20260504130702 | 66 | 121 | 3.0 | 5.0 | 0.00 | 0.00 | 0.00 | 74 | 1009.8 |
| 20260504130602 | 66 | 124 | 4.0 | 5.0 | 0.00 | 0.00 | 0.00 | 74 | 1009.8 |
| 20260504130502 | 66 | 125 | 3.0 | 5.0 | 0.00 | 0.00 | 0.00 | 74 | 1009.8 |
| 20260504130403 | 66 | 124 | 2.0 | 3.0 | 0.00 | 0.00 | 0.00 | 74 | 1009.8 |
| 20260504130301 | 66 | 123 | 2.0 | 3.0 | 0.00 | 0.00 | 0.00 | 74 | 1009.9 |
| 20260504130202 | 66 | 123 | 2.0 | 3.0 | 0.00 | 0.00 | 0.00 | 74 | 1009.9 |
| 20260504120302 | 61 | 142 | 0.0 | 4.0 | 0.00 | 0.00 | 0.00 | 78 | 1009.7 |
| 20260504120203 | 61 | 142 | 1.0 | 4.0 | 0.00 | 0.00 | 0.00 | 78 | 1009.6 |
| 20260504110704 | 60 | 148 | 0.0 | 0.0 | 0.00 | 0.00 | 0.00 | 81 | 1009.3 |
| 20260504110603 | 60 | 148 | 0.0 | 0.0 | 0.00 | 0.00 | 0.00 | 81 | 1009.3 |
| 20260504110502 | 60 | 148 | 0.0 | 0.0 | 0.00 | 0.00 | 0.00 | 81 | 1009.3 |
| 20260504110402 | 60 | 148 | 0.0 | 0.0 | 0.00 | 0.00 | 0.00 | 81 | 1009.3 |
| 20260504110302 | 60 | 148 | 0.0 | 0.0 | 0.00 | 0.00 | 0.00 | 81 | 1009.4 |
| 20260504110204 | 60 | 148 | 0.0 | 0.0 | 0.00 | 0.00 | 0.00 | 81 | 1009.4 |
| 20260504110103 | 60 | 148 | 0.0 | 0.0 | 0.00 | 0.00 | 0.00 | 81 | 1009.5 |
| 20260504100602 | 62 | 149 | 1.0 | 3.0 | 0.00 | 0.00 | 0.00 | 76 | 1009.6 |
| 20260504100505 | 62 | 151 | 1.0 | 3.0 | 0.00 | 0.00 | 0.00 | 76 | 1009.8 |
| 20260504100404 | 62 | 151 | 1.0 | 3.0 | 0.00 | 0.00 | 0.00 | 76 | 1009.8 |
| 20260504100302 | 62 | 149 | 1.0 | 3.0 | 0.00 | 0.00 | 0.00 | 76 | 1009.8 |
| 20260504100203 | 62 | 149 | 1.0 | 3.0 | 0.00 | 0.00 | 0.00 | 76 | 1009.9 |
| 20260504100103 | 62 | 149 | 1.0 | 3.0 | 0.00 | 0.00 | 0.00 | 76 | 1009.9 |
| 20260504090104 | 62 | 155 | 1.0 | 2.0 | 0.00 | 0.00 | 0.00 | 75 | 1010.2 |
| 20260504082002 | 62 | 162 | 1.0 | 3.0 | 0.00 | 0.00 | 0.00 | 75 | 1010.3 |
| 20260504081901 | 62 | 162 | 2.0 | 3.0 | 0.00 | 0.00 | 0.00 | 75 | 1010.3 |
| 20260504081803 | 62 | 162 | 2.0 | 3.0 | 0.00 | 0.00 | 0.00 | 75 | 1010.2 |
| 20260504081704 | 62 | 164 | 1.0 | 3.0 | 0.00 | 0.00 | 0.00 | 75 | 1010.3 |
| 20260504081603 | 62 | 164 | 1.0 | 3.0 | 0.00 | 0.00 | 0.00 | 75 | 1010.3 |
| 20260504081502 | 62 | 164 | 1.0 | 3.0 | 0.00 | 0.00 | 0.00 | 75 | 1010.4 |
| 20260504081403 | 62 | 164 | 1.0 | 3.0 | 0.00 | 0.00 | 0.00 | 75 | 1010.4 |
| 20260504081304 | 62 | 164 | 2.0 | 3.0 | 0.00 | 0.00 | 0.00 | 75 | 1010.4 |
| 20260504081202 | 62 | 165 | 1.0 | 3.0 | 0.00 | 0.00 | 0.00 | 75 | 1010.4 |
| 20260504081102 | 62 | 166 | 1.0 | 3.0 | 0.00 | 0.00 | 0.00 | 75 | 1010.3 |
| 20260504081004 | 62 | 166 | 1.0 | 3.0 | 0.00 | 0.00 | 0.00 | 75 | 1010.3 |
| 20260504080902 | 62 | 166 | 1.0 | 3.0 | 0.00 | 0.00 | 0.00 | 75 | 1010.3 |
| 20260504080803 | 62 | 166 | 1.0 | 3.0 | 0.00 | 0.00 | 0.00 | 76 | 1010.4 |
| 20260504080704 | 62 | 169 | 1.0 | 3.0 | 0.00 | 0.00 | 0.00 | 76 | 1010.3 |
| 20260504080603 | 62 | 169 | 1.0 | 3.0 | 0.00 | 0.00 | 0.00 | 76 | 1010.3 |
| 20260504080502 | 62 | 169 | 2.0 | 3.0 | 0.00 | 0.00 | 0.00 | 76 | 1010.3 |
| 20260504080403 | 62 | 172 | 2.0 | 3.0 | 0.00 | 0.00 | 0.00 | 76 | 1010.3 |
| 20260504080303 | 62 | 172 | 0.0 | 2.0 | 0.00 | 0.00 | 0.00 | 76 | 1010.4 |
| 20260504080203 | 62 | 175 | 0.0 | 0.0 | 0.00 | 0.00 | 0.00 | 76 | 1010.5 |
| 20260504070403 | 63 | 182 | 0.0 | 0.0 | 0.00 | 0.00 | 0.00 | 74 | 1011.7 |
| 20260504070303 | 63 | 183 | 0.0 | 0.0 | 0.00 | 0.00 | 0.00 | 74 | 1011.8 |
| 20260504070203 | 63 | 183 | 0.0 | 0.0 | 0.00 | 0.00 | 0.00 | 74 | 1011.8 |
| 20260504070104 | 63 | 183 | 0.0 | 0.0 | 0.00 | 0.00 | 0.00 | 74 | 1011.8 |